EW7307 Weather Reports


time (UTC)temp
C
wind
direction
speed
KPH
gust
KPH
rain 1hr
cm
rain 24hr
cm
rain mn
cm
humidity
%
barometer
mb
20260506134856 17 329 11.3 16.1 0.00 0.46 0.08 61 1010.7
20260506134818 17 13 11.3 17.7 0.00 0.46 0.08 58 1010.8
20260506134551 17 34 4.8 19.3 0.00 0.46 0.08 59 1010.7
20260506134507 17 247 6.4 19.3 0.00 0.46 0.08 57 1010.8
20260506134040 17 323 8.0 19.3 0.00 0.46 0.08 61 1010.8
20260506133943 17 307 11.3 19.3 0.00 0.46 0.08 61 1010.8
20260506133901 17 311 12.9 19.3 0.00 0.46 0.08 60 1010.8
20260506133816 17 328 11.3 19.3 0.00 0.46 0.08 61 1010.9
20260506133608 17 336 6.4 20.9 0.00 0.46 0.08 60 1010.9
20260506133533 17 324 14.5 19.3 0.00 0.46 0.08 61 1010.9
20260506133441 17 342 9.7 19.3 0.00 0.46 0.08 62 1010.8
20260506133401 17 348 4.8 17.7 0.00 0.46 0.08 65 1010.8
20260506133316 17 294 4.8 17.7 0.00 0.46 0.08 63 1010.9
20260506133027 16 280 6.4 17.7 0.00 0.46 0.08 63 1010.9
20260506132926 16 265 9.7 17.7 0.00 0.46 0.08 62 1010.9
20260506132827 16 314 8.0 17.7 0.00 0.46 0.08 64 1010.9
20260506132724 16 296 6.4 17.7 0.00 0.46 0.08 64 1010.9
20260506132625 16 305 9.7 17.7 0.00 0.46 0.08 62 1010.9
20260506132519 16 317 8.0 27.4 0.00 0.46 0.08 65 1010.9
20260506132420 16 300 9.7 27.4 0.00 0.46 0.08 65 1010.9
20260506132407 16 286 9.7 19.3 0.00 0.46 0.08 61 1011.0
20260506132328 16 277 11.3 27.4 0.00 0.46 0.08 63 1010.9
20260506132243 16 332 11.3 27.4 0.00 0.46 0.08 63 1010.9
20260506132201 16 291 12.9 27.4 0.00 0.46 0.08 65 1010.9
20260506132114 16 338 14.5 27.4 0.00 0.46 0.08 63 1011.0
20260506132032 16 282 11.3 27.4 0.00 0.46 0.08 64 1010.9
20260506131806 16 334 14.5 27.4 0.00 0.46 0.08 62 1010.9
20260506131724 16 302 11.3 27.4 0.00 0.46 0.08 63 1010.9
20260506131641 16 18 11.3 25.7 0.00 0.46 0.08 65 1010.9
20260506131418 16 319 14.5 25.7 0.00 0.46 0.08 62 1010.9
20260506131151 16 312 9.7 22.5 0.00 0.46 0.08 64 1010.9
20260506131108 16 311 8.0 17.7 0.00 0.46 0.08 64 1010.9
20260506131025 16 321 6.4 17.7 0.00 0.46 0.08 64 1011.0
20260506130558 17 332 8.0 19.3 0.00 0.46 0.08 61 1011.0
20260506130458 17 265 9.7 20.9 0.00 0.46 0.08 60 1010.9
20260506130439 17 11 4.8 24.1 0.00 0.46 0.08 63 1011.0
20260506130355 17 325 12.9 20.9 0.00 0.46 0.08 60 1010.9
20260506130304 17 305 11.3 20.9 0.00 0.46 0.08 60 1011.0
20260506130220 17 329 9.7 20.9 0.00 0.46 0.08 62 1011.0
20260506130137 17 319 9.7 20.9 0.00 0.46 0.08 65 1011.0
20260506130053 17 330 11.3 20.9 0.00 0.46 0.08 64 1011.0
20260506125849 17 287 12.9 20.9 0.00 0.46 0.08 63 1010.9
20260506125827 17 286 11.3 24.1 0.00 0.46 0.08 61 1011.0
20260506125749 17 307 14.5 20.9 0.00 0.46 0.08 61 1011.0
20260506125648 17 325 17.7 20.9 0.00 0.46 0.08 63 1011.0
20260506125630 17 334 11.3 24.1 0.00 0.46 0.08 59 1011.0
20260506125546 17 346 16.1 20.9 0.00 0.46 0.08 62 1011.0
20260506125442 17 346 14.5 20.9 0.00 0.46 0.08 62 1010.9
20260506125343 17 339 12.9 20.9 0.00 0.46 0.08 61 1010.9
20260506125245 17 22 11.3 20.9 0.00 0.46 0.08 59 1010.9
20260506125205 17 281 14.5 20.9 0.00 0.46 0.08 59 1011.0
20260506125122 17 328 14.5 20.9 0.00 0.46 0.08 59 1011.0
20260506124839 17 337 11.3 20.9 0.00 0.46 0.08 60 1010.9
20260506124750 17 312 11.3 20.9 0.00 0.46 0.08 59 1010.9
20260506124707 17 347 12.9 19.3 0.00 0.46 0.08 59 1010.9
20260506124625 17 350 9.7 22.5 0.00 0.46 0.08 59 1010.9
20260506124432 17 324 4.8 22.5 0.00 0.46 0.08 60 1011.0
20260506124331 17 234 4.8 22.5 0.00 0.46 0.08 65 1010.9
20260506124254 17 235 9.7 25.7 0.00 0.46 0.08 58 1011.3
20260506124230 17 317 6.4 22.5 0.00 0.46 0.08 60 1010.9
20260506124131 17 329 8.0 22.5 0.00 0.46 0.08 60 1010.9
20260506124038 16 286 11.3 22.5 0.00 0.46 0.08 64 1010.9
20260506123927 16 280 11.3 22.5 0.00 0.46 0.08 63 1010.9
20260506123825 16 298 11.3 22.5 0.00 0.46 0.08 62 1011.0
20260506123727 16 325 14.5 22.5 0.00 0.46 0.08 62 1011.0
20260506123627 16 300 12.9 22.5 0.00 0.46 0.08 63 1011.0
20260506123528 16 339 9.7 19.3 0.00 0.46 0.08 62 1010.9
20260506123425 16 239 11.3 19.3 0.00 0.46 0.08 66 1010.9
20260506123324 16 317 11.3 19.3 0.00 0.46 0.08 63 1010.8
20260506123254 16 325 14.5 20.9 0.00 0.46 0.08 66 1011.7
20260506123223 16 25 8.0 17.7 0.00 0.46 0.08 61 1010.9
20260506123122 16 31 9.7 19.3 0.00 0.46 0.08 65 1010.9
20260506123037 16 321 11.3 19.3 0.00 0.46 0.08 64 1010.9
20260506122957 16 317 6.4 19.3 0.00 0.46 0.08 61 1011.0
20260506122915 16 313 6.4 19.3 0.00 0.46 0.08 61 1010.9
20260506122717 16 316 9.7 25.7 0.00 0.46 0.08 60 1010.9
20260506122705 16 312 12.9 22.5 0.00 0.46 0.08 67 1011.7
20260506122613 16 281 11.3 25.7 0.00 0.46 0.08 59 1011.0
20260506122514 16 313 14.5 25.7 0.00 0.46 0.08 58 1011.0
20260506122410 16 326 14.5 25.7 0.00 0.46 0.08 59 1011.0
20260506122309 16 296 12.9 25.7 0.00 0.46 0.08 60 1010.9
20260506122209 17 307 12.9 25.7 0.00 0.46 0.08 58 1011.0
20260506122108 17 309 14.5 25.7 0.00 0.46 0.08 59 1010.9
20260506122013 17 293 17.7 25.7 0.00 0.46 0.08 59 1011.0
20260506121929 17 338 12.9 25.7 0.00 0.46 0.08 59 1011.0
20260506121843 17 325 6.4 25.7 0.00 0.46 0.08 62 1011.0
20260506121626 16 23 12.9 20.9 0.00 0.46 0.08 63 1011.9
20260506121559 17 13 8.0 20.9 0.00 0.46 0.08 59 1010.9
20260506121459 17 215 11.3 20.9 0.00 0.46 0.08 57 1010.8
20260506121356 17 277 11.3 20.9 0.00 0.46 0.08 60 1010.8
20260506121257 17 329 9.7 20.9 0.00 0.46 0.08 59 1010.9
20260506121244 15 321 9.7 20.9 0.00 0.46 0.08 67 1012.0
20260506121154 17 279 11.3 20.9 0.00 0.46 0.08 58 1011.0
20260506121111 17 305 11.3 20.9 0.00 0.46 0.08 62 1010.9
20260506121024 17 279 9.7 20.9 0.00 0.46 0.08 61 1011.0
20260506120939 17 342 6.4 16.1 0.00 0.46 0.08 61 1010.9
20260506120749 17 321 4.8 17.7 0.00 0.46 0.08 62 1010.9
20260506120646 17 309 4.8 17.7 0.00 0.46 0.08 57 1010.9
20260506120557 17 51 4.8 17.7 0.00 0.46 0.08 62 1010.9
20260506120514 17 225 4.8 17.7 0.00 0.46 0.08 63 1010.9
20260506120433 17 312 6.4 17.7 0.00 0.46 0.08 66 1011.0
20260506120345 16 229 9.7 17.7 0.00 0.46 0.08 65 1011.0
20260506120140 16 309 9.7 17.7 0.00 0.46 0.08 65 1011.0
20260506120118 16 327 14.5 20.9 0.00 0.46 0.08 64 1012.0
20260506120043 16 309 11.3 19.3 0.00 0.46 0.08 63 1011.0
20260506115947 16 301 11.3 19.3 0.00 0.46 0.08 61 1011.0
20260506115904 16 328 9.7 19.3 0.00 0.46 0.08 63 1011.0
20260506115821 16 321 6.4 19.3 0.00 0.46 0.08 62 1011.0
20260506115532 16 270 12.9 22.5 0.00 0.46 0.08 61 1011.0
20260506115442 16 324 12.9 24.1 0.00 0.46 0.08 62 1011.0
20260506115359 16 339 12.9 24.1 0.00 0.46 0.08 61 1011.0
20260506115314 17 332 12.9 24.1 0.00 0.46 0.08 61 1011.0
20260506115228 17 22 8.0 24.1 0.00 0.46 0.08 59 1010.9
20260506114956 17 325 9.7 24.1 0.00 0.46 0.08 61 1010.9
20260506114914 17 339 14.5 24.1 0.00 0.46 0.08 64 1011.0
20260506114645 17 337 16.1 24.1 0.00 0.46 0.08 60 1011.0
20260506114601 17 337 14.5 24.1 0.00 0.46 0.08 61 1011.0
20260506114328 17 315 12.9 24.1 0.00 0.46 0.08 59 1011.1
20260506114239 17 312 11.3 24.1 0.00 0.46 0.08 61 1011.1
20260506114158 17 330 9.7 24.1 0.00 0.46 0.08 63 1011.2
20260506113911 17 306 9.7 24.1 0.00 0.46 0.08 58 1011.2
20260506113810 17 306 14.5 24.1 0.00 0.46 0.08 57 1011.2
20260506113709 17 273 14.5 24.1 0.00 0.46 0.08 56 1011.2
20260506113609 17 304 12.9 24.1 0.00 0.46 0.08 58 1011.2
20260506113506 17 321 11.3 22.5 0.00 0.46 0.08 60 1011.2
20260506113406 17 316 8.0 24.1 0.00 0.46 0.08 60 1011.2
20260506113305 17 281 9.7 24.1 0.00 0.46 0.08 57 1011.2
20260506113204 17 295 11.3 24.1 0.00 0.46 0.08 58 1011.2
20260506113121 17 255 8.0 24.1 0.00 0.46 0.08 59 1011.3
20260506113022 17 311 3.2 24.1 0.00 0.46 0.08 63 1011.3
20260506112940 17 282 8.0 24.1 0.00 0.46 0.08 62 1011.3
20260506112655 17 344 17.7 24.1 0.00 0.46 0.08 62 1011.3
20260506112630 15 221 6.4 24.1 0.00 0.46 0.08 65 1012.1
20260506112559 17 347 14.5 24.1 0.00 0.46 0.08 62 1011.3
20260506112516 17 335 9.7 24.1 0.00 0.46 0.08 60 1011.3
20260506112434 17 314 11.3 25.7 0.00 0.46 0.08 60 1011.3
20260506112150 17 284 8.0 25.7 0.00 0.46 0.08 63 1011.5
20260506112055 17 230 9.7 25.7 0.00 0.46 0.08 61 1011.5
20260506111957 17 277 9.7 25.7 0.00 0.46 0.08 61 1011.3
20260506111919 16 281 12.9 25.7 0.00 0.46 0.08 61 1011.5
20260506111834 17 291 14.5 25.7 0.00 0.46 0.08 61 1011.5
20260506111638 17 325 16.1 25.7 0.00 0.46 0.08 58 1011.6
20260506111539 17 313 14.5 25.7 0.00 0.46 0.08 57 1011.6
20260506111437 17 301 8.0 24.1 0.00 0.46 0.08 58 1011.6
20260506111337 17 317 6.4 22.5 0.00 0.46 0.08 64 1011.6
20260506111235 17 247 8.0 22.5 0.00 0.46 0.08 62 1011.6
20260506111133 17 265 8.0 22.5 0.00 0.46 0.08 64 1011.6
20260506111031 16 267 8.0 22.5 0.00 0.46 0.08 66 1011.6
20260506110932 16 341 9.7 22.5 0.00 0.46 0.08 61 1011.6
20260506110839 16 323 14.5 22.5 0.00 0.46 0.08 64 1011.6
20260506110754 16 324 11.3 22.5 0.00 0.46 0.08 62 1011.6
20260506110708 16 331 6.4 22.5 0.00 0.46 0.08 64 1011.6
20260506110615 16 305 4.8 20.9 0.00 0.46 0.08 63 1011.6
20260506110518 16 309 6.4 20.9 0.00 0.46 0.08 62 1011.6
20260506110436 16 255 8.0 20.9 0.00 0.46 0.08 62 1011.7
20260506110352 16 292 9.7 20.9 0.00 0.46 0.08 65 1011.7
20260506110307 16 317 14.5 20.9 0.00 0.46 0.08 63 1011.6
20260506110029 16 303 16.1 20.9 0.00 0.46 0.08 65 1011.7
20260506105947 16 306 14.5 20.9 0.00 0.46 0.08 65 1011.6
20260506105518 16 346 12.9 22.5 0.00 0.46 0.08 67 1011.6
20260506105415 16 27 9.7 22.5 0.00 0.46 0.08 67 1011.6
20260506105315 15 11 6.4 22.5 0.00 0.46 0.08 67 1011.7
20260506105213 15 11 9.7 22.5 0.00 0.46 0.08 65 1011.7
20260506105112 15 304 12.9 22.5 0.00 0.46 0.08 65 1011.8
20260506105013 15 310 12.9 22.5 0.00 0.46 0.08 65 1011.8
20260506104909 16 304 14.5 22.5 0.00 0.46 0.08 66 1011.8
20260506104810 16 331 11.3 22.5 0.00 0.46 0.08 66 1011.8
20260506104712 16 9 11.3 22.5 0.00 0.46 0.08 66 1011.8
20260506104609 16 350 12.9 22.5 0.00 0.46 0.08 65 1011.8
20260506104508 16 288 14.5 22.5 0.00 0.46 0.08 67 1011.8
20260506104405 16 337 17.7 22.5 0.00 0.46 0.08 66 1011.8
20260506104318 16 323 11.3 22.5 0.00 0.46 0.08 63 1011.8
20260506104230 16 295 9.7 20.9 0.00 0.46 0.08 64 1011.9
20260506104148 16 294 12.9 20.9 0.00 0.46 0.08 62 1011.8
20260506103859 16 316 11.3 20.9 0.00 0.46 0.08 64 1011.9
20260506103805 16 286 9.7 20.9 0.00 0.46 0.08 67 1011.9
20260506103719 16 324 11.3 20.9 0.00 0.46 0.08 67 1011.9
20260506103640 16 9 14.5 20.9 0.00 0.46 0.08 67 1011.9
20260506103550 16 304 16.1 20.9 0.00 0.46 0.08 68 1012.0
20260506103506 15 319 11.3 20.9 0.00 0.46 0.08 66 1011.9
20260506103424 15 328 8.0 20.9 0.00 0.46 0.08 69 1012.0
20260506103156 15 319 11.3 20.9 0.00 0.46 0.08 66 1012.0
20260506102922 15 280 12.9 20.9 0.00 0.46 0.08 67 1012.0
20260506102842 15 310 12.9 20.9 0.00 0.46 0.08 67 1012.0
20260506102755 15 321 14.5 20.9 0.00 0.46 0.08 67 1012.0
20260506102524 15 302 16.1 20.9 0.00 0.46 0.08 65 1011.9
20260506102236 16 350 12.9 20.9 0.00 0.46 0.08 64 1012.0
20260506102136 16 321 11.3 17.7 0.00 0.46 0.08 64 1012.0
20260506102036 16 304 11.3 17.7 0.00 0.46 0.08 65 1012.0
20260506101934 16 314 6.4 17.7 0.00 0.46 0.08 64 1011.9
20260506101832 16 300 8.0 17.7 0.00 0.46 0.08 65 1012.0
20260506101731 16 221 9.7 20.9 0.00 0.46 0.08 66 1012.0
20260506101631 16 327 6.4 20.9 0.00 0.46 0.08 66 1011.9
20260506101610 13 275 9.7 19.3 0.00 0.46 0.08 71 1012.1
20260506101528 16 271 4.8 20.9 0.00 0.46 0.08 63 1011.9
20260506101503 13 281 6.4 19.3 0.00 0.46 0.08 74 1012.0
20260506101426 16 303 4.8 20.9 0.00 0.46 0.08 68 1011.9
20260506101346 13 230 12.9 20.9 0.00 0.46 0.08 74 1012.1
20260506101325 16 232 4.8 20.9 0.00 0.46 0.08 68 1012.0
20260506101224 16 315 6.4 20.9 0.00 0.46 0.08 65 1012.0
20260506101123 16 205 9.7 20.9 0.00 0.46 0.08 63 1012.0
20260506101027 16 301 12.9 20.9 0.00 0.46 0.08 66 1012.0
20260506100941 16 330 9.7 20.9 0.00 0.46 0.08 64 1012.0
20260506100859 16 344 9.7 16.1 0.00 0.46 0.08 62 1012.0
20260506100815 16 277 9.7 16.1 0.00 0.46 0.08 62 1012.0
20260506100618 16 292 8.0 16.1 0.00 0.46 0.08 67 1012.1
20260506100518 16 192 8.0 16.1 0.00 0.46 0.08 64 1012.0
20260506100422 16 314 9.7 16.1 0.00 0.46 0.08 64 1012.0
20260506100340 16 297 8.0 19.3 0.00 0.46 0.08 65 1012.0
20260506100256 16 297 4.8 19.3 0.00 0.46 0.08 66 1012.1
20260506100158 16 309 6.4 19.3 0.00 0.46 0.08 63 1012.1
20260506100050 16 311 8.0 20.9 0.00 0.46 0.08 63 1012.1
20260506095950 16 293 4.8 24.1 0.00 0.46 0.08 65 1012.1
20260506095910 16 268 3.2 24.1 0.00 0.46 0.08 67 1012.1
20260506095643 15 313 11.3 24.1 0.00 0.46 0.08 67 1012.0
20260506095603 15 9 12.9 24.1 0.00 0.46 0.08 67 1012.0
20260506095521 16 344 9.7 24.1 0.00 0.46 0.08 69 1012.1
20260506095252 16 333 16.1 24.1 0.00 0.46 0.08 65 1012.1
20260506095102 16 282 12.9 24.1 0.00 0.46 0.08 66 1012.0
20260506095018 13 238 9.7 16.1 0.00 0.46 0.08 72 1012.0
20260506095000 16 304 9.7 24.1 0.00 0.46 0.08 69 1012.0
20260506094859 16 305 9.7 17.7 0.00 0.46 0.08 66 1012.1
20260506094758 16 303 6.4 17.7 0.00 0.46 0.08 67 1012.1
20260506094657 16 333 4.8 16.1 0.00 0.46 0.08 69 1012.1
20260506094558 16 309 6.4 17.7 0.00 0.46 0.08 67 1012.2
20260506094542 13 265 12.9 24.1 0.00 0.46 0.08 74 1012.0
20260506094455 16 284 8.0 17.7 0.00 0.46 0.08 70 1012.1
20260506094356 16 304 6.4 17.7 0.00 0.46 0.08 70 1012.1
20260506094253 15 324 3.2 17.7 0.00 0.46 0.08 68 1012.1
20260506094228 12 312 8.0 20.9 0.00 0.46 0.08 76 1012.0
20260506094151 15 324 3.2 17.7 0.00 0.46 0.08 68 1012.2
20260506094102 12 297 9.7 20.9 0.00 0.46 0.08 74 1012.0
20260506094050 15 309 3.2 17.7 0.00 0.46 0.08 68 1012.1
20260506093949 15 232 4.8 17.7 0.00 0.46 0.08 70 1012.1
20260506093907 13 265 9.7 20.9 0.00 0.46 0.08 72 1012.0
20260506093848 15 238 9.7 17.7 0.00 0.46 0.08 72 1012.2
20260506093746 15 241 14.5 17.7 0.00 0.46 0.08 69 1012.1
20260506093648 15 311 12.9 17.7 0.00 0.46 0.08 69 1012.1
20260506093545 15 323 11.3 17.7 0.00 0.46 0.08 68 1012.0
20260506093513 12 338 11.3 19.3 0.00 0.46 0.08 76 1012.0
20260506093436 15 296 8.0 17.7 0.00 0.46 0.08 67 1012.1
20260506093334 15 294 6.4 16.1 0.00 0.46 0.08 68 1012.0
20260506093237 15 282 4.8 16.1 0.00 0.46 0.08 68 1012.0
20260506093224 12 232 8.0 24.1 0.00 0.46 0.08 77 1012.0
20260506093154 12 309 8.0 24.1 0.00 0.46 0.08 75 1012.0
20260506093133 15 286 4.8 16.1 0.00 0.46 0.08 69 1012.0
20260506093102 12 268 12.9 24.1 0.00 0.46 0.08 76 1011.9
20260506093033 15 208 6.4 16.1 0.00 0.46 0.08 69 1012.0
20260506092932 15 270 8.0 16.1 0.00 0.46 0.08 68 1012.0
20260506092919 12 265 8.0 22.5 0.00 0.46 0.08 76 1012.0
20260506092830 15 296 6.4 16.1 0.00 0.46 0.08 68 1012.0
20260506092729 15 257 6.4 16.1 0.00 0.46 0.08 67 1012.1
20260506092627 15 291 6.4 17.7 0.00 0.46 0.08 69 1012.0
20260506092526 15 300 4.8 17.7 0.00 0.46 0.08 70 1012.1
20260506092517 12 277 6.4 14.5 0.00 0.46 0.08 81 1012.0
20260506092446 12 287 6.4 14.5 0.00 0.46 0.08 80 1011.9
20260506092423 15 294 6.4 17.7 0.00 0.46 0.08 70 1012.0
20260506092322 15 259 6.4 17.7 0.00 0.46 0.08 70 1012.0
20260506092221 15 255 8.0 17.7 0.00 0.46 0.08 70 1012.1
20260506092120 15 309 6.4 17.7 0.00 0.46 0.08 71 1012.0
20260506092055 11 196 4.8 12.9 0.00 0.46 0.08 87 1011.9
20260506092018 15 238 6.4 17.7 0.00 0.46 0.08 72 1012.0
20260506091951 11 284 4.8 12.9 0.00 0.46 0.08 87 1011.9
20260506091920 15 330 11.3 17.7 0.00 0.46 0.08 72 1012.0
20260506091817 15 323 12.9 17.7 0.00 0.46 0.08 69 1011.9
20260506091717 15 13 9.7 17.7 0.00 0.46 0.08 70 1012.0
20260506091619 15 336 9.7 17.7 0.00 0.46 0.08 71 1012.0
20260506091517 15 279 8.0 17.7 0.00 0.46 0.08 70 1012.0
20260506091447 11 292 3.2 11.3 0.00 0.46 0.08 88 1011.9
20260506091414 15 336 6.4 16.1 0.00 0.46 0.08 70 1012.1
20260506091314 15 329 6.4 16.1 0.00 0.46 0.08 71 1012.0
20260506091214 14 288 4.8 16.1 0.00 0.46 0.08 73 1012.0
20260506091112 14 306 6.4 16.1 0.00 0.46 0.08 70 1012.1
20260506091014 14 44 4.8 16.1 0.00 0.46 0.08 70 1012.1
20260506090908 14 51 6.4 16.1 0.00 0.46 0.08 70 1012.1
20260506090807 14 302 9.7 16.1 0.00 0.46 0.08 70 1012.1
20260506090723 10 307 4.8 12.9 0.00 0.46 0.08 91 1012.0
20260506090704 15 319 12.9 16.1 0.00 0.46 0.08 71 1012.1
20260506090603 15 319 12.9 16.1 0.00 0.46 0.08 72 1012.0
20260506090510 15 314 9.7 16.1 0.00 0.46 0.08 72 1012.0
20260506090450 10 247 3.2 12.9 0.00 0.46 0.08 91 1011.9
20260506090403 14 315 6.4 16.1 0.00 0.46 0.08 73 1012.0
20260506090351 10 231 4.8 12.9 0.00 0.46 0.08 91 1012.0
20260506090304 14 337 6.4 16.1 0.00 0.46 0.08 70 1012.1
20260506090202 14 26 3.2 16.1 0.00 0.46 0.08 71 1012.0
20260506090101 14 344 3.2 16.1 0.00 0.46 0.08 70 1012.0
20260506090000 14 32 6.4 16.1 0.00 0.46 0.08 70 1012.1
20260506085854 14 303 8.0 16.1 0.00 0.46 0.08 73 1012.1
20260506085839 10 282 4.8 12.9 0.00 0.46 0.08 92 1011.9
20260506085753 14 233 8.0 16.1 0.00 0.46 0.08 69 1012.1
20260506085655 14 332 4.8 16.1 0.00 0.46 0.08 73 1012.1
20260506085645 10 307 3.2 11.3 0.00 0.46 0.08 92 1011.8
20260506085553 14 333 4.8 17.7 0.00 0.46 0.08 72 1012.1
20260506085538 10 291 3.2 8.0 0.00 0.46 0.08 92 1011.8
20260506085512 10 238 3.2 8.0 0.00 0.46 0.08 92 1011.9
20260506085451 14 202 6.4 19.3 0.00 0.46 0.08 71 1012.1
20260506085350 14 297 9.7 19.3 0.00 0.46 0.08 71 1012.1
20260506085246 14 13 6.4 19.3 0.00 0.46 0.08 72 1012.1
20260506085146 14 300 3.2 19.3 0.00 0.46 0.08 72 1012.1
20260506085117 10 254 4.8 12.9 0.00 0.46 0.08 93 1011.8
20260506085048 14 257 3.2 19.3 0.00 0.46 0.08 74 1012.1
20260506084958 13 178 6.4 19.3 0.00 0.46 0.08 71 1012.1
20260506084916 13 279 9.7 19.3 0.00 0.46 0.08 71 1012.1
20260506084834 13 319 11.3 19.3 0.00 0.46 0.08 71 1012.0
20260506084749 14 347 11.3 19.3 0.00 0.46 0.08 72 1012.1
20260506084517 13 314 9.7 19.3 0.00 0.46 0.08 71 1012.0
20260506084250 13 309 6.4 19.3 0.00 0.46 0.08 71 1012.0
20260506084208 13 284 8.0 20.9 0.00 0.46 0.08 72 1012.1
20260506083926 13 309 14.5 20.9 0.00 0.46 0.08 70 1012.0
20260506083824 14 298 9.7 20.9 0.00 0.46 0.08 71 1012.1
20260506083727 13 305 6.4 20.9 0.00 0.46 0.08 72 1012.1
20260506083640 13 335 6.4 20.9 0.00 0.46 0.08 70 1012.1
20260506083600 13 316 6.4 20.9 0.00 0.46 0.08 69 1012.1
20260506083514 14 302 9.7 20.9 0.00 0.46 0.08 71 1012.1
20260506083250 13 291 4.8 16.1 0.00 0.46 0.08 73 1012.1
20260506083205 13 296 4.8 16.1 0.00 0.46 0.08 74 1012.0
20260506083122 13 293 6.4 16.1 0.00 0.46 0.08 74 1012.0
20260506082853 13 208 6.4 16.1 0.00 0.46 0.08 73 1012.0
20260506082641 10 225 4.8 14.5 0.00 0.46 0.08 93 1011.8
20260506082610 13 108 9.7 20.9 0.00 0.46 0.08 72 1012.1
20260506082511 13 281 8.0 20.9 0.00 0.46 0.08 71 1012.1
20260506082404 13 267 6.4 22.5 0.00 0.46 0.08 73 1012.1
20260506082305 13 262 8.0 24.1 0.00 0.46 0.08 75 1012.1
20260506082202 13 299 9.7 24.1 0.00 0.46 0.08 74 1012.0
20260506082101 13 336 8.0 24.1 0.00 0.46 0.08 73 1012.1
20260506082042 10 213 3.2 11.3 0.00 0.46 0.08 93 1011.7
20260506082002 13 309 8.0 24.1 0.00 0.46 0.08 74 1012.1
20260506081918 13 304 9.7 24.1 0.00 0.46 0.08 73 1012.1
20260506081837 13 296 9.7 24.1 0.00 0.46 0.08 74 1012.0
20260506081557 13 316 12.9 24.1 0.00 0.46 0.08 74 1012.0
20260506081449 13 294 9.7 24.1 0.00 0.46 0.08 73 1012.0
20260506081436 10 225 4.8 12.9 0.00 0.46 0.08 93 1011.7
20260506081349 13 305 12.9 24.1 0.00 0.46 0.08 73 1012.0
20260506081310 13 305 14.5 24.1 0.00 0.46 0.08 73 1012.0
20260506081229 13 310 11.3 24.1 0.00 0.46 0.08 74 1012.0
20260506081132 13 292 6.4 24.1 0.00 0.46 0.08 76 1012.0
20260506080906 12 273 9.7 20.9 0.00 0.46 0.08 74 1012.0
20260506080825 12 281 9.7 20.9 0.00 0.46 0.08 75 1012.1
20260506080543 12 296 9.7 20.9 0.00 0.46 0.08 73 1012.0
20260506080501 12 301 8.0 20.9 0.00 0.46 0.08 73 1012.1
20260506080415 12 304 9.7 20.9 0.00 0.46 0.08 73 1012.0
20260506080220 10 277 4.8 12.9 0.00 0.46 0.08 94 1011.6
20260506080139 13 281 11.3 20.9 0.00 0.46 0.08 74 1012.0
20260506073522 12 252 6.4 19.3 0.00 0.46 0.08 80 1012.0
20260506073054 12 312 6.4 14.5 0.00 0.46 0.08 83 1012.0
20260506072953 11 301 4.8 14.5 0.00 0.46 0.08 84 1012.0
20260506072902 11 319 6.4 14.5 0.00 0.46 0.08 85 1012.0
20260506072820 11 289 6.4 14.5 0.00 0.46 0.08 85 1011.9
20260506072724 11 291 4.8 14.5 0.00 0.46 0.08 86 1012.0
20260506072630 11 284 3.2 12.9 0.00 0.46 0.08 87 1011.9
20260506072547 11 315 3.2 12.9 0.00 0.46 0.08 87 1012.0
20260506072325 11 238 6.4 12.9 0.00 0.46 0.08 87 1012.0
20260506072059 9 275 3.2 6.4 0.00 0.46 0.08 93 1011.6
20260506072038 11 211 6.4 11.3 0.00 0.46 0.08 87 1012.0
20260506071939 11 296 4.8 11.3 0.00 0.46 0.08 87 1012.0
20260506071839 11 282 3.2 11.3 0.00 0.46 0.08 87 1012.0
20260506071806 9 238 3.2 9.7 0.00 0.46 0.08 93 1011.6
20260506071736 11 257 3.2 11.3 0.00 0.46 0.08 87 1012.0
20260506071635 11 259 4.8 11.3 0.00 0.46 0.08 88 1012.0
20260506071534 11 279 4.8 11.3 0.00 0.46 0.08 88 1012.0
20260506071434 11 279 3.2 11.3 0.00 0.46 0.08 88 1012.0
20260506071354 11 277 3.2 11.3 0.00 0.46 0.08 88 1012.0
20260506071259 11 238 3.2 11.3 0.00 0.46 0.08 88 1012.0
20260506071217 11 51 3.2 11.3 0.00 0.46 0.08 88 1012.0
20260506070951 11 265 4.8 11.3 0.00 0.46 0.08 88 1012.0
20260506070907 11 221 4.8 11.3 0.00 0.46 0.08 88 1012.0
20260506070825 10 301 3.2 11.3 0.00 0.46 0.08 88 1012.0
20260506070622 10 309 3.2 11.3 0.00 0.46 0.08 88 1012.0
20260506070520 10 300 3.2 11.3 0.00 0.46 0.08 89 1012.0
20260506070456 9 265 3.2 4.8 0.00 0.46 0.08 93 1011.5
20260506070418 10 273 3.2 11.3 0.00 0.46 0.08 89 1012.0
20260506070319 10 225 3.2 11.3 0.00 0.46 0.08 89 1012.0
20260506070216 10 282 4.8 11.3 0.00 0.46 0.08 89 1012.0
20260506070123 10 265 6.4 14.5 0.00 0.46 0.08 89 1012.0
20260506062435 10 275 3.2 9.7 0.00 0.46 0.08 92 1011.8
20260506062420 9 215 1.6 6.4 0.00 0.46 0.08 93 1011.2
20260506062333 10 259 3.2 12.9 0.00 0.46 0.08 92 1011.8
20260506062259 9 265 1.6 6.4 0.00 0.46 0.08 93 1011.2
20260506062238 10 265 3.2 12.9 0.00 0.46 0.08 92 1011.8
20260506062157 10 291 3.2 12.9 0.00 0.46 0.08 92 1011.8
20260506062112 10 282 4.8 12.9 0.00 0.46 0.08 92 1011.8
20260506061828 10 286 3.2 12.9 0.00 0.46 0.08 93 1011.8
20260506061728 10 195 4.8 12.9 0.00 0.46 0.08 93 1011.8
20260506061716 9 249 1.6 6.4 0.00 0.46 0.08 93 1011.2
20260506061625 10 208 4.8 12.9 0.00 0.46 0.08 93 1011.8
20260506061614 9 265 1.6 3.2 0.00 0.46 0.08 93 1011.2
20260506061524 10 221 4.8 14.5 0.00 0.46 0.08 93 1011.8
20260506061424 10 249 4.8 14.5 0.00 0.46 0.08 93 1011.8
20260506061342 10 287 6.4 14.5 0.00 0.46 0.08 93 1011.8
20260506061302 10 292 4.8 14.5 0.00 0.46 0.08 93 1011.7
20260506061022 10 41 4.8 14.5 0.00 0.46 0.08 93 1011.8
20260506060925 10 217 3.2 14.5 0.00 0.46 0.08 93 1011.8
20260506060843 10 238 4.8 14.5 0.00 0.46 0.08 93 1011.7
20260506060749 10 286 6.4 14.5 0.00 0.46 0.08 93 1011.8
20260506060652 10 215 4.8 14.5 0.00 0.46 0.08 93 1011.8
20260506060609 10 254 4.8 14.5 0.00 0.46 0.08 93 1011.8
20260506060410 10 265 4.8 14.5 0.00 0.46 0.08 93 1011.8
20260506060329 10 294 4.8 14.5 0.00 0.46 0.08 93 1011.8
20260506060234 10 215 3.2 11.3 0.00 0.46 0.08 93 1011.8
20260506060151 10 265 3.2 11.3 0.00 0.46 0.08 94 1011.8
20260506051310 9 250 3.2 4.8 0.00 0.46 0.08 93 1011.5
20260506051251 9 221 1.6 3.2 0.00 0.46 0.08 93 1011.0
20260506051208 9 238 3.2 4.8 0.00 0.46 0.08 93 1011.5
20260506051108 9 238 3.2 4.8 0.00 0.46 0.08 93 1011.5
20260506051026 9 153 0.0 3.2 0.00 0.46 0.08 93 1010.9
20260506051007 9 321 1.6 4.8 0.00 0.46 0.08 93 1011.5
20260506050906 9 282 1.6 4.8 0.00 0.46 0.08 93 1011.5
20260506050804 9 282 1.6 4.8 0.00 0.46 0.08 93 1011.5
20260506050723 9 309 1.6 4.8 0.00 0.46 0.08 93 1011.5
20260506050641 9 265 1.6 4.8 0.00 0.46 0.08 93 1011.5
20260506050552 9 250 1.6 4.8 0.00 0.46 0.08 93 1011.3
20260506050511 9 279 3.2 4.8 0.00 0.46 0.08 93 1011.3
20260506050249 9 265 1.6 4.8 0.00 0.46 0.08 93 1011.3
20260506050208 9 265 1.6 4.8 0.00 0.46 0.08 93 1011.3
20260506050127 9 229 0.0 3.2 0.00 0.46 0.08 93 1011.3
20260506045046 9 250 1.6 6.4 0.00 0.46 0.08 93 1011.2
20260506044949 9 238 1.6 6.4 0.00 0.46 0.08 93 1011.2
20260506044713 9 254 1.6 6.4 0.00 0.46 0.08 93 1011.2
20260506044630 9 250 1.6 6.4 0.00 0.46 0.08 93 1011.2
20260506044404 9 275 1.6 6.4 0.00 0.46 0.08 93 1011.2
20260506044122 9 279 1.6 3.2 0.00 0.46 0.08 93 1011.2
20260506044020 9 221 1.6 3.2 0.00 0.46 0.08 93 1011.2
20260506043923 9 221 0.0 3.2 0.00 0.46 0.08 93 1011.1
20260506043833 9 265 0.0 3.2 0.00 0.46 0.08 93 1011.1
20260506043755 9 282 1.6 3.2 0.00 0.46 0.08 93 1011.2
20260506043514 9 309 0.0 1.6 0.00 0.46 0.08 93 1011.1
20260506043413 9 334 0.0 1.6 0.00 0.46 0.08 93 1011.2
20260506043331 9 215 0.0 3.2 0.00 0.46 0.08 93 1011.1
20260506043315 9 309 0.0 1.6 0.00 0.46 0.08 93 1011.2
20260506043213 9 153 0.0 1.6 0.00 0.46 0.08 93 1011.2
20260506043112 9 153 0.0 1.6 0.00 0.46 0.08 93 1011.2
20260506043012 9 153 0.0 1.6 0.00 0.46 0.08 93 1011.1
20260506042903 9 153 0.0 1.6 0.00 0.46 0.08 93 1011.1
20260506042846 9 190 1.6 3.2 0.00 0.46 0.08 93 1011.2
20260506042756 9 153 0.0 1.6 0.00 0.46 0.08 93 1011.1
20260506042657 9 153 0.0 1.6 0.00 0.46 0.08 93 1011.1
20260506042556 9 153 0.0 1.6 0.00 0.46 0.08 93 1011.1
20260506042453 9 153 0.0 3.2 0.00 0.46 0.08 93 1011.1
20260506042411 9 153 0.0 3.2 0.00 0.46 0.08 93 1011.0
20260506042334 9 137 0.0 3.2 0.00 0.46 0.08 93 1011.0
20260506042254 9 178 0.0 3.2 0.00 0.46 0.08 93 1011.0
20260506042030 9 146 1.6 3.2 0.00 0.46 0.08 93 1011.0
20260506041945 9 165 0.0 3.2 0.00 0.46 0.08 93 1010.9
20260506041905 9 161 0.0 3.2 0.00 0.46 0.08 93 1011.0
20260506041829 9 178 1.6 3.2 0.00 0.46 0.08 93 1011.0
20260506041423 9 161 1.6 3.2 0.00 0.46 0.08 93 1011.0
20260506041226 9 146 0.0 3.2 0.00 0.46 0.08 93 1011.1
20260506041142 9 196 1.6 3.2 0.00 0.46 0.08 93 1011.0
20260506041127 9 93 1.6 3.2 0.00 0.46 0.08 93 1011.2
20260506041040 9 178 1.6 3.2 0.00 0.46 0.08 93 1011.0
20260506040944 9 165 0.0 3.2 0.00 0.46 0.08 93 1010.9
20260506040856 9 178 0.0 3.2 0.00 0.46 0.08 93 1011.0
20260506040820 9 178 0.0 3.2 0.00 0.46 0.08 93 1011.0
20260506040603 9 178 0.0 3.2 0.00 0.46 0.08 93 1010.9
20260506040419 9 265 0.0 3.2 0.00 0.46 0.08 93 1011.0
20260506040320 9 282 0.0 3.2 0.00 0.46 0.08 93 1011.0
20260506040307 9 51 0.0 1.6 0.00 0.46 0.08 93 1011.2
20260506040221 9 221 1.6 3.2 0.00 0.46 0.08 93 1010.9
20260506040112 9 279 0.0 3.2 0.00 0.46 0.08 93 1011.0
20260506040016 9 291 0.0 3.2 0.00 0.46 0.08 93 1011.0
20260506035938 9 309 0.0 3.2 0.00 0.46 0.08 93 1010.9
20260506035902 9 51 0.0 3.2 0.00 0.46 0.08 93 1011.0
20260506035709 9 51 0.0 4.8 0.00 0.46 0.08 93 1010.9
20260506035649 9 137 1.6 3.2 0.00 0.46 0.08 93 1011.2
20260506035608 9 51 0.0 4.8 0.00 0.46 0.08 93 1011.0
20260506035527 9 168 1.6 4.8 0.00 0.46 0.08 93 1011.2
20260506035508 9 93 0.0 4.8 0.00 0.46 0.08 93 1011.0
20260506035359 9 93 0.0 4.8 0.00 0.46 0.08 93 1011.0
20260506035259 9 196 0.0 4.8 0.00 0.46 0.08 93 1011.1
20260506035158 9 196 0.0 4.8 0.00 0.46 0.08 93 1010.9
20260506035058 9 178 0.0 4.8 0.00 0.46 0.08 93 1011.0
20260506035036 9 178 0.0 3.2 0.00 0.46 0.08 93 1011.2
20260506035000 9 137 1.6 4.8 0.00 0.46 0.08 93 1011.0
20260506034912 9 338 3.2 4.8 0.00 0.46 0.08 93 1011.0
20260506034835 9 304 1.6 4.8 0.00 0.46 0.08 93 1011.0
20260506034642 9 286 1.6 3.2 0.00 0.46 0.08 93 1011.1
20260506034549 9 254 1.6 3.2 0.00 0.46 0.08 93 1011.1
20260506034502 9 243 1.6 3.2 0.00 0.46 0.08 93 1011.1
20260506034418 9 153 1.6 3.2 0.00 0.46 0.08 93 1011.0
20260506034128 9 111 0.0 3.2 0.00 0.46 0.08 93 1011.1
20260506034028 9 137 0.0 3.2 0.00 0.46 0.08 93 1011.1
20260506033922 9 153 1.6 3.2 0.00 0.46 0.08 93 1011.0
20260506033820 9 137 1.6 3.2 0.00 0.46 0.08 93 1011.1
20260506033720 9 178 1.6 3.2 0.00 0.46 0.08 93 1011.1
20260506033619 9 178 1.6 3.2 0.00 0.46 0.08 93 1011.1
20260506033517 9 161 1.6 3.2 0.00 0.46 0.08 93 1011.1
20260506033417 9 161 1.6 3.2 0.00 0.46 0.08 93 1011.1
20260506033359 9 325 0.0 1.6 0.00 0.46 0.08 93 1011.2
20260506033333 9 325 0.0 1.6 0.00 0.46 0.08 93 1011.2
20260506033316 9 193 1.6 3.2 0.00 0.46 0.08 93 1011.1
20260506033214 9 205 1.6 3.2 0.00 0.46 0.08 93 1011.1
20260506033112 9 178 1.6 3.2 0.00 0.46 0.08 93 1011.1
20260506033057 9 334 0.0 1.6 0.00 0.46 0.08 93 1011.2
20260506033017 9 146 1.6 3.2 0.00 0.46 0.08 93 1011.1
20260506032933 9 119 1.6 3.2 0.00 0.46 0.08 93 1011.1
20260506032849 9 161 1.6 3.2 0.00 0.46 0.08 93 1011.1
20260506032628 9 205 1.6 3.2 0.00 0.46 0.08 93 1011.2
20260506032547 9 178 1.6 3.2 0.00 0.46 0.08 93 1011.2
20260506032500 9 196 1.6 3.2 0.00 0.46 0.08 93 1011.2
20260506032316 9 282 0.0 3.2 0.00 0.46 0.08 93 1011.2
20260506032305 9 205 0.0 3.2 0.00 0.46 0.08 93 1011.2
20260506032157 9 265 0.0 1.6 0.00 0.46 0.08 93 1011.2
20260506032103 9 153 0.0 1.6 0.00 0.46 0.08 93 1011.2
20260506031957 9 178 0.0 1.6 0.00 0.46 0.08 93 1011.2
20260506031856 9 137 0.0 1.6 0.00 0.46 0.08 93 1011.2
20260506031816 9 9 0.0 3.2 0.00 0.46 0.08 93 1011.3
20260506031755 9 137 0.0 1.6 0.00 0.46 0.08 93 1011.2
20260506031655 9 137 1.6 1.6 0.00 0.46 0.08 93 1011.2
20260506031613 9 178 0.0 1.6 0.00 0.46 0.08 93 1011.1
20260506031529 9 178 0.0 1.6 0.00 0.46 0.08 93 1011.2
20260506031444 9 178 1.6 3.2 0.00 0.46 0.08 93 1011.2
20260506031227 9 51 0.0 3.2 0.00 0.46 0.08 93 1011.1
20260506031007 9 146 0.0 3.2 0.00 0.46 0.08 93 1011.2
20260506030920 9 144 0.0 3.2 0.00 0.46 0.08 93 1011.2
20260506030841 9 111 1.6 3.2 0.00 0.46 0.08 93 1011.2
20260506030602 9 146 1.6 3.2 0.00 0.46 0.08 93 1011.2
20260506030516 9 137 0.0 1.6 0.00 0.46 0.08 93 1011.2
20260506030313 9 93 1.6 3.2 0.00 0.46 0.08 93 1011.2
20260506030237 9 93 0.0 1.6 0.00 0.46 0.08 93 1011.2
20260506030156 9 93 0.0 3.2 0.00 0.46 0.08 93 1011.2
20260506030122 9 93 0.0 3.2 0.00 0.46 0.08 93 1011.1
20260506025931 9 93 0.0 3.2 0.00 0.46 0.08 93 1011.2
20260506025853 9 93 0.0 3.2 0.00 0.46 0.08 93 1011.1
20260506025811 9 93 0.0 3.2 0.00 0.46 0.08 93 1011.2
20260506025546 9 137 0.0 3.2 0.00 0.46 0.08 93 1011.1
20260506025502 9 108 0.0 3.2 0.00 0.46 0.08 93 1011.2
20260506025225 9 178 1.6 3.2 0.00 0.46 0.08 93 1011.1
20260506025138 9 165 1.6 4.8 0.00 0.46 0.08 93 1011.2
20260506025101 9 137 1.6 4.8 0.00 0.46 0.08 93 1011.2
20260506024820 9 205 0.0 4.8 0.00 0.46 0.08 93 1011.2
20260506024718 9 165 0.0 4.8 0.00 0.46 0.08 93 1011.2
20260506024634 9 205 0.0 4.8 0.00 0.46 0.08 93 1011.2
20260506024552 9 282 0.0 4.8 0.00 0.46 0.08 93 1011.2
20260506024514 9 282 1.6 4.8 0.00 0.46 0.08 93 1011.2
20260506024305 9 282 1.6 4.8 0.00 0.46 0.08 93 1011.2
20260506024205 9 309 3.2 3.2 0.00 0.46 0.08 93 1011.2
20260506024154 9 265 1.6 3.2 0.00 0.46 0.08 93 1011.2
20260506024130 9 282 0.0 3.2 0.00 0.46 0.08 93 1011.2
20260506024103 9 314 1.6 3.2 0.00 0.46 0.08 93 1011.2
20260506024000 9 309 1.6 3.2 0.00 0.46 0.08 93 1011.2
20260506023859 9 319 1.6 3.2 0.00 0.46 0.08 93 1011.1
20260506023800 9 232 1.6 3.2 0.00 0.46 0.08 93 1011.1
20260506023717 9 238 1.6 3.2 0.00 0.46 0.08 93 1011.1
20260506023640 9 221 1.6 3.2 0.00 0.46 0.08 93 1011.1
20260506023557 9 146 0.0 3.2 0.00 0.46 0.08 93 1011.1
20260506023331 9 137 0.0 3.2 0.00 0.46 0.08 93 1011.1
20260506023132 10 67 1.6 4.8 0.00 0.46 0.08 93 1011.3
20260506023049 9 221 0.0 3.2 0.00 0.46 0.08 93 1011.1
20260506022950 9 93 1.6 3.2 0.00 0.46 0.08 93 1011.2
20260506022845 9 137 1.6 3.2 0.00 0.46 0.08 93 1011.2
20260506022745 9 105 1.6 3.2 0.00 0.46 0.08 93 1011.1
20260506022643 9 119 1.6 3.2 0.00 0.46 0.08 93 1011.2
20260506022536 9 108 1.6 3.2 0.00 0.46 0.08 93 1011.2
20260506022447 9 105 1.6 3.2 0.00 0.46 0.08 93 1011.2
20260506022407 9 137 1.6 3.2 0.00 0.46 0.08 93 1011.2
20260506022327 9 123 1.6 3.2 0.00 0.46 0.08 93 1011.2
20260506022130 9 93 1.6 3.2 0.00 0.46 0.08 93 1011.3
20260506022028 9 126 1.6 3.2 0.00 0.46 0.08 93 1011.2
20260506021929 9 119 1.6 3.2 0.00 0.46 0.08 93 1011.2
20260506021907 10 196 1.6 6.4 0.03 0.46 0.08 92 1011.7
20260506021829 9 111 1.6 3.2 0.00 0.46 0.08 93 1011.2
20260506021740 9 115 1.6 3.2 0.00 0.46 0.08 93 1011.1
20260506021620 9 108 1.6 3.2 0.00 0.46 0.08 93 1011.1
20260506021519 9 126 0.0 1.6 0.00 0.46 0.08 93 1011.1
20260506021436 10 178 1.6 3.2 0.03 0.46 0.08 92 1011.8
20260506021417 9 205 0.0 1.6 0.00 0.46 0.08 93 1011.2
20260506021316 9 51 1.6 1.6 0.00 0.46 0.08 93 1011.2
20260506021216 9 93 0.0 1.6 0.00 0.46 0.08 93 1011.2
20260506021135 9 137 0.0 1.6 0.00 0.46 0.08 93 1011.1
20260506021053 9 9 0.0 1.6 0.00 0.46 0.08 93 1011.2
20260506021010 9 26 0.0 1.6 0.00 0.46 0.08 93 1011.1
20260506020807 9 51 0.0 1.6 0.00 0.46 0.08 93 1011.2
20260506020730 9 309 0.0 1.6 0.00 0.46 0.08 93 1011.2
20260506020655 9 309 0.0 1.6 0.00 0.46 0.08 93 1011.2
20260506020614 9 309 0.0 1.6 0.00 0.46 0.08 93 1011.1
20260506020213 9 309 0.0 1.6 0.00 0.46 0.08 93 1011.1
20260506020137 9 334 0.0 1.6 0.00 0.46 0.08 93 1011.1
20260506020104 9 334 0.0 1.6 0.00 0.46 0.08 93 1011.1
20260506020001 9 9 0.0 1.6 0.00 0.46 0.08 93 1011.1
20260506015930 9 9 1.6 1.6 0.00 0.46 0.08 93 1011.2
20260506015850 9 9 0.0 1.6 0.00 0.46 0.08 93 1011.1
20260506015314 9 142 1.6 3.2 0.03 0.46 0.08 92 1011.8
20260506015242 9 146 0.0 3.2 0.00 0.46 0.08 93 1011.2
20260506015141 9 282 0.0 3.2 0.00 0.46 0.08 93 1011.2
20260506015039 9 51 0.0 3.2 0.00 0.46 0.08 93 1011.2
20260506014936 9 51 0.0 3.2 0.00 0.46 0.08 93 1011.2
20260506014838 9 153 0.0 3.2 0.00 0.46 0.08 93 1011.2
20260506014825 9 9 0.0 6.4 0.03 0.46 0.08 92 1011.9
20260506014752 9 119 1.6 6.4 0.03 0.46 0.08 92 1011.9
20260506014730 9 153 0.0 3.2 0.00 0.46 0.08 93 1011.2
20260506014627 9 126 1.6 3.2 0.00 0.46 0.08 93 1011.2
20260506014526 9 137 1.6 3.2 0.00 0.46 0.08 93 1011.2
20260506014424 9 137 1.6 3.2 0.00 0.46 0.08 93 1011.2
20260506014322 9 93 1.6 3.2 0.00 0.46 0.08 93 1011.2
20260506014307 9 187 1.6 4.8 0.00 0.43 0.05 92 1012.0
20260506014224 9 131 1.6 3.2 0.00 0.46 0.08 93 1011.2
20260506014136 9 93 1.6 3.2 0.00 0.46 0.08 92 1011.3
20260506014055 9 76 1.6 3.2 0.00 0.46 0.08 92 1011.2
20260506013817 9 34 0.0 3.2 0.00 0.46 0.08 92 1011.3
20260506013718 9 80 1.6 3.2 0.00 0.46 0.08 92 1011.2
20260506013656 9 51 1.6 3.2 0.03 0.43 0.05 91 1012.0
20260506013615 9 93 1.6 3.2 0.00 0.46 0.08 92 1011.2
20260506013514 9 111 1.6 3.2 0.00 0.46 0.08 93 1011.2
20260506013432 9 93 0.0 3.2 0.00 0.46 0.08 93 1011.2
20260506013350 9 93 0.0 3.2 0.00 0.46 0.08 93 1011.3
20260506013133 9 137 1.6 3.2 0.00 0.46 0.08 92 1011.3
20260506013052 9 119 1.6 3.2 0.00 0.46 0.08 92 1011.2
20260506012856 9 212 1.6 3.2 0.03 0.43 0.05 91 1012.1
20260506012805 9 126 1.6 3.2 0.00 0.46 0.08 92 1011.3
20260506012702 9 137 1.6 3.2 0.00 0.46 0.08 92 1011.3
20260506012601 9 93 1.6 3.2 0.00 0.46 0.08 92 1011.2
20260506012534 10 247 0.0 3.2 0.05 0.43 0.05 92 1012.0
20260506012502 9 80 1.6 3.2 0.00 0.46 0.08 92 1011.3
20260506012420 9 80 1.6 3.2 0.00 0.46 0.08 92 1011.2
20260506012339 9 76 1.6 3.2 0.00 0.46 0.08 92 1011.2
20260506012257 9 80 1.6 1.6 0.00 0.46 0.08 92 1011.2
20260506012055 9 76 1.6 1.6 0.00 0.46 0.08 92 1011.2
20260506011954 9 51 0.0 1.6 0.00 0.46 0.08 93 1011.2
20260506011907 9 9 0.0 3.2 0.00 0.46 0.08 93 1011.2
20260506011824 9 309 0.0 3.2 0.00 0.46 0.08 93 1011.3
20260506011543 9 282 0.0 3.2 0.00 0.46 0.08 93 1011.2
20260506011446 9 309 0.0 3.2 0.00 0.46 0.08 93 1011.2
20260506011401 9 265 0.0 3.2 0.00 0.46 0.08 93 1011.2
20260506011324 9 238 0.0 3.2 0.00 0.46 0.08 93 1011.2
20260506011251 9 221 0.0 3.2 0.00 0.46 0.08 93 1011.3
20260506010907 10 178 1.6 3.2 0.05 0.43 0.05 92 1012.1
20260506010826 9 298 0.0 3.2 0.00 0.46 0.08 93 1011.3
20260506010728 9 265 1.6 3.2 0.00 0.46 0.08 93 1011.3
20260506010618 9 291 1.6 3.2 0.00 0.46 0.08 93 1011.3
20260506010535 10 221 1.6 3.2 0.05 0.43 0.05 92 1012.1
20260506010516 10 309 1.6 3.2 0.00 0.46 0.08 93 1011.3
20260506010418 10 9 1.6 4.8 0.00 0.46 0.08 93 1011.3
20260506010329 10 9 1.6 4.8 0.00 0.46 0.08 93 1011.3
20260506010249 10 325 1.6 4.8 0.00 0.46 0.08 93 1011.3
20260506010018 10 103 1.6 4.8 0.00 0.46 0.08 93 1011.3
20260506010006 10 221 1.6 3.2 0.05 0.43 0.05 92 1012.1
20260506005913 10 111 1.6 4.8 0.00 0.46 0.08 93 1011.3
20260506005812 10 161 1.6 4.8 0.00 0.46 0.08 93 1011.5
20260506005713 10 221 1.6 4.8 0.00 0.46 0.08 93 1011.5
20260506005615 10 205 1.6 4.8 0.00 0.46 0.08 93 1011.5
20260506005602 10 178 1.6 4.8 0.05 0.43 0.05 92 1012.2
20260506005506 10 168 3.2 4.8 0.00 0.46 0.08 93 1011.5
20260506005412 10 190 1.6 4.8 0.00 0.46 0.08 93 1011.6
20260506005353 10 132 1.6 9.7 0.05 0.43 0.05 92 1012.1
20260506005308 10 198 1.6 4.8 0.00 0.46 0.08 93 1011.6
20260506005206 10 178 1.6 4.8 0.00 0.46 0.08 93 1011.6
20260506005109 10 196 1.6 4.8 0.00 0.46 0.08 93 1011.6
20260506005040 10 307 6.4 12.9 0.05 0.43 0.05 92 1012.3
20260506005006 10 200 3.2 4.8 0.00 0.46 0.08 93 1011.6
20260506004941 10 330 6.4 12.9 0.05 0.43 0.05 92 1012.3
20260506004906 10 209 1.6 4.8 0.00 0.46 0.08 93 1011.6
20260506004802 10 170 1.6 3.2 0.00 0.46 0.08 92 1011.5
20260506004707 10 168 1.6 3.2 0.03 0.46 0.08 93 1011.6
20260506004627 10 161 1.6 3.2 0.03 0.46 0.08 92 1011.6
20260506004545 10 168 1.6 3.2 0.03 0.46 0.08 92 1011.6
20260506004254 10 178 0.0 4.8 0.03 0.46 0.08 92 1011.6
20260506004215 10 137 1.6 4.8 0.03 0.46 0.08 92 1011.6
20260506004137 10 161 1.6 4.8 0.03 0.46 0.08 92 1011.7
20260506003950 10 137 0.0 6.4 0.03 0.46 0.08 92 1011.6
20260506003903 10 265 1.6 6.4 0.03 0.46 0.08 92 1011.6
20260506003823 10 238 1.6 6.4 0.03 0.46 0.08 92 1011.7
20260506003542 10 205 3.2 6.4 0.03 0.46 0.08 92 1011.7
20260506003529 10 306 3.2 9.7 0.00 0.38 0.00 92 1012.4
20260506003442 10 188 1.6 6.4 0.03 0.46 0.08 92 1011.8
20260506003340 10 158 3.2 6.4 0.03 0.46 0.08 92 1011.7
20260506003311 10 303 1.6 4.8 0.00 0.38 0.00 92 1012.5
20260506003240 10 178 3.2 6.4 0.03 0.46 0.08 92 1011.8
20260506003138 10 178 3.2 6.4 0.03 0.46 0.08 92 1011.8
20260506003036 10 288 3.2 6.4 0.03 0.46 0.08 92 1011.8
20260506002955 10 254 1.6 4.8 0.00 0.38 0.00 92 1012.5
20260506002935 10 188 1.6 3.2 0.03 0.46 0.08 92 1011.8
20260506002850 10 158 1.6 3.2 0.03 0.46 0.08 92 1011.8
20260506002808 10 190 1.6 3.2 0.03 0.46 0.08 92 1011.9
20260506002527 10 188 1.6 3.2 0.03 0.46 0.08 92 1011.8
20260506002426 10 205 1.6 3.2 0.03 0.46 0.08 92 1011.8
20260506002324 10 178 1.6 3.2 0.03 0.46 0.08 92 1011.8
20260506002243 10 146 1.6 3.2 0.03 0.46 0.08 92 1011.8
20260506002203 10 131 3.2 3.2 0.03 0.46 0.08 92 1011.8
20260506001947 10 247 1.6 4.8 0.00 0.38 0.00 92 1012.6
20260506001917 10 123 1.6 3.2 0.03 0.46 0.08 93 1011.8
20260506001816 10 161 1.6 3.2 0.03 0.46 0.08 93 1011.8
20260506001735 10 144 1.6 3.2 0.03 0.46 0.08 92 1011.8
20260506001659 9 137 1.6 3.2 0.03 0.46 0.08 92 1011.8
20260506001443 10 212 1.6 3.2 0.00 0.41 0.38 92 1012.7
20260506001411 9 129 1.6 3.2 0.03 0.46 0.08 92 1011.8
20260506001318 9 165 0.0 3.2 0.03 0.46 0.08 92 1011.9
20260506001241 10 275 1.6 3.2 0.00 0.41 0.38 92 1012.7
20260506001211 9 153 0.0 3.2 0.03 0.46 0.08 92 1011.8
20260506001153 10 238 0.0 3.2 0.00 0.41 0.38 92 1012.6
20260506001129 10 309 1.6 3.2 0.00 0.41 0.38 92 1012.6
20260506001111 9 111 0.0 3.2 0.03 0.46 0.08 92 1011.9
20260506001052 10 238 1.6 3.2 0.00 0.41 0.38 92 1012.6
20260506001009 9 67 0.0 3.2 0.03 0.46 0.08 92 1011.9
20260506000941 10 247 1.6 3.2 0.00 0.41 0.38 92 1012.7
20260506000914 9 67 0.0 3.2 0.03 0.46 0.08 92 1011.8
20260506000902 10 265 0.0 3.2 0.00 0.41 0.38 92 1012.7
20260506000819 10 282 1.6 4.8 0.00 0.41 0.38 92 1012.8
20260506000806 9 67 0.0 3.2 0.03 0.46 0.08 92 1011.9
20260506000738 10 238 1.6 4.8 0.00 0.41 0.38 92 1012.7
20260506000707 9 137 1.6 6.4 0.03 0.46 0.08 92 1011.9
20260506000608 9 137 1.6 6.4 0.03 0.46 0.08 92 1011.9
20260506000548 10 247 1.6 4.8 0.00 0.41 0.38 92 1012.7
20260506000518 9 111 1.6 6.4 0.03 0.46 0.08 92 1011.8
20260506000434 9 119 1.6 6.4 0.03 0.46 0.08 92 1011.9
20260506000354 9 330 1.6 6.4 0.03 0.46 0.08 92 1012.0
20260506000136 9 9 0.0 6.4 0.03 0.46 0.08 92 1011.9
20260505235858 9 205 3.2 6.4 0.03 0.46 0.08 92 1011.9
20260505235759 9 178 3.2 6.4 0.03 0.46 0.08 92 1011.9
20260505235735 10 221 1.6 4.8 0.00 0.41 0.38 92 1012.7
20260505235656 9 185 3.2 4.8 0.03 0.46 0.08 92 1011.9
20260505235556 9 212 3.2 4.8 0.03 0.46 0.08 92 1012.0
20260505235530 10 298 1.6 3.2 0.00 0.41 0.38 92 1012.8
20260505235449 9 173 1.6 4.8 0.03 0.46 0.08 92 1012.0
20260505235349 9 144 1.6 4.8 0.03 0.46 0.08 92 1012.0
20260505235308 10 229 1.6 3.2 0.00 0.41 0.38 92 1012.9
20260505235246 9 178 1.6 4.8 0.03 0.46 0.08 92 1012.0
20260505235147 9 188 1.6 4.8 0.03 0.46 0.08 92 1012.0
20260505235134 10 265 1.6 3.2 0.00 0.41 0.38 91 1012.9
20260505235045 9 178 3.2 4.8 0.03 0.46 0.08 92 1011.9
20260505234945 9 168 3.2 4.8 0.03 0.46 0.08 92 1012.0
20260505234900 9 178 3.2 4.8 0.03 0.46 0.08 92 1012.0
20260505234814 9 201 3.2 4.8 0.00 0.43 0.08 92 1012.0
20260505234531 9 205 1.6 3.2 0.00 0.43 0.05 92 1012.0
20260505234516 10 229 1.6 3.2 0.00 0.43 0.38 91 1012.9
20260505234453 10 238 1.6 3.2 0.00 0.43 0.38 91 1012.9
20260505234428 9 200 1.6 3.2 0.00 0.43 0.05 92 1012.0
20260505234342 9 178 1.6 3.2 0.00 0.43 0.05 92 1012.0
20260505234230 9 146 1.6 3.2 0.00 0.43 0.05 91 1012.0
20260505234214 10 250 1.6 3.2 0.00 0.43 0.38 91 1012.9
20260505234128 9 178 1.6 3.2 0.00 0.43 0.05 92 1012.0
20260505234027 9 221 0.0 3.2 0.00 0.43 0.05 91 1012.0
20260505233955 10 238 1.6 3.2 0.00 0.43 0.38 91 1012.9
20260505233927 9 247 0.0 3.2 0.00 0.43 0.05 91 1012.0
20260505233832 9 265 0.0 3.2 0.00 0.43 0.05 91 1012.0
20260505233756 9 93 1.6 3.2 0.00 0.43 0.05 91 1012.1
20260505233519 9 193 1.6 3.2 0.03 0.43 0.05 91 1012.1
20260505233443 10 247 0.0 3.2 0.00 0.43 0.38 91 1013.0
20260505233417 9 238 1.6 3.2 0.03 0.43 0.05 91 1012.1
20260505233331 9 282 1.6 3.2 0.03 0.43 0.05 91 1012.2
20260505233250 9 282 0.0 3.2 0.03 0.43 0.05 91 1012.1
20260505233211 9 279 1.6 3.2 0.03 0.43 0.05 91 1012.1
20260505232945 9 265 1.6 3.2 0.05 0.43 0.05 91 1012.1
20260505232902 9 221 1.6 3.2 0.05 0.43 0.05 91 1012.1
20260505232715 9 298 1.6 3.2 0.05 0.43 0.05 91 1012.1
20260505232633 10 282 1.6 3.2 0.05 0.43 0.05 92 1012.1
20260505232556 10 291 1.6 3.2 0.05 0.43 0.05 91 1012.1
20260505232501 10 282 1.6 3.2 0.05 0.43 0.05 91 1012.0
20260505232416 10 282 1.6 3.2 0.05 0.43 0.05 91 1012.0
20260505231951 10 221 0.0 3.2 0.05 0.43 0.05 92 1012.0
20260505231903 10 286 0.0 4.8 0.00 0.43 0.38 91 1012.9
20260505231849 10 291 0.0 3.2 0.05 0.43 0.05 92 1012.1
20260505231807 10 291 0.0 3.2 0.05 0.43 0.05 92 1012.1
20260505231735 10 265 1.6 3.2 0.05 0.43 0.05 92 1012.0
20260505231641 10 221 1.6 3.2 0.05 0.43 0.05 92 1012.0
20260505231439 10 205 0.0 3.2 0.05 0.43 0.05 92 1012.2
20260505231350 10 153 0.0 3.2 0.05 0.43 0.05 92 1012.2
20260505231253 10 137 1.6 3.2 0.00 0.43 0.38 91 1012.9
20260505231238 10 221 0.0 3.2 0.05 0.43 0.05 92 1012.1
20260505231222 10 146 1.6 3.2 0.00 0.43 0.38 91 1012.8
20260505231140 10 221 0.0 3.2 0.05 0.43 0.05 92 1012.1
20260505231103 10 178 0.0 3.2 0.05 0.43 0.05 92 1012.1
20260505230913 10 168 1.6 3.2 0.00 0.43 0.38 91 1012.8
20260505230846 10 178 1.6 3.2 0.00 0.43 0.38 91 1012.7
20260505230826 10 265 0.0 3.2 0.05 0.43 0.05 92 1012.1
20260505230722 10 212 0.0 3.2 0.05 0.43 0.05 92 1012.1
20260505230619 10 221 1.6 3.2 0.05 0.43 0.05 92 1012.2
20260505230517 10 232 0.0 3.2 0.05 0.43 0.05 92 1012.2
20260505230430 10 221 0.0 3.2 0.05 0.43 0.05 92 1012.2
20260505230317 10 205 1.6 3.2 0.05 0.43 0.05 92 1012.2
20260505230235 10 215 1.6 3.2 0.05 0.43 0.05 92 1012.1
20260505230155 10 254 1.6 3.2 0.05 0.43 0.05 92 1012.1
20260505225944 10 309 1.6 3.2 0.00 0.53 0.38 91 1012.5
20260505225919 10 212 1.6 3.2 0.05 0.43 0.05 92 1012.1
20260505225833 10 205 1.6 3.2 0.05 0.43 0.05 92 1012.2
20260505225750 10 217 1.6 3.2 0.05 0.43 0.05 92 1012.1
20260505225542 10 212 1.6 3.2 0.00 0.53 0.38 91 1012.5
20260505225508 10 209 1.6 4.8 0.05 0.43 0.05 92 1012.2
20260505225407 10 196 0.0 4.8 0.05 0.43 0.05 92 1012.1
20260505225355 10 153 1.6 3.2 0.00 0.58 0.38 91 1012.5
20260505225308 10 205 0.0 4.8 0.05 0.43 0.05 92 1012.1
20260505225207 10 137 1.6 4.8 0.05 0.43 0.05 92 1012.1
20260505225108 10 153 1.6 4.8 0.05 0.43 0.05 92 1012.2
20260505225032 10 165 1.6 4.8 0.05 0.43 0.05 92 1012.2
20260505224949 10 170 1.6 4.8 0.05 0.43 0.05 92 1012.2
20260505224704 10 161 1.6 8.0 0.05 0.43 0.05 92 1012.2
20260505224625 10 205 1.6 8.0 0.05 0.43 0.05 92 1012.1
20260505224542 10 163 1.6 8.0 0.05 0.43 0.05 92 1012.2
20260505224258 10 44 1.6 9.7 0.05 0.43 0.05 92 1012.1
20260505224214 11 119 3.2 4.8 0.00 0.64 0.38 91 1012.2
20260505224156 10 119 1.6 9.7 0.05 0.43 0.05 92 1012.2
20260505224105 10 314 3.2 12.9 0.05 0.43 0.05 92 1012.2
20260505224023 10 316 4.8 12.9 0.05 0.43 0.05 92 1012.2
20260505223939 10 44 4.8 12.9 0.05 0.43 0.05 92 1012.2
20260505223854 10 336 4.8 12.9 0.05 0.43 0.05 92 1012.3
20260505223811 10 312 6.4 12.9 0.05 0.43 0.05 92 1012.4
20260505223413 11 149 3.2 4.8 0.00 0.64 0.38 91 1012.2
20260505223346 10 347 6.4 12.9 0.05 0.43 0.05 92 1012.4
20260505223245 10 337 8.0 12.9 0.05 0.43 0.05 92 1012.4
20260505223146 10 316 6.4 12.9 0.05 0.43 0.05 92 1012.4
20260505223107 10 332 6.4 12.9 0.05 0.43 0.05 92 1012.4
20260505223027 10 304 6.4 12.9 0.03 0.41 0.03 92 1012.5
20260505222943 10 317 8.0 12.9 0.00 0.38 0.03 92 1012.4
20260505222859 10 298 8.0 12.9 0.00 0.38 0.00 92 1012.6
20260505222816 10 321 6.4 11.3 0.00 0.38 0.00 92 1012.5
20260505222555 10 296 3.2 9.7 0.00 0.38 0.00 92 1012.4
20260505222511 10 309 3.2 9.7 0.00 0.38 0.00 92 1012.4
20260505222131 10 295 3.2 4.8 0.00 0.38 0.00 92 1012.4
20260505222038 10 305 3.2 4.8 0.00 0.38 0.00 92 1012.4
20260505221953 10 265 1.6 4.8 0.00 0.38 0.00 92 1012.4
20260505221912 10 303 1.6 4.8 0.00 0.38 0.00 92 1012.4
20260505221626 10 250 1.6 4.8 0.00 0.38 0.00 92 1012.4
20260505221541 10 254 3.2 4.8 0.00 0.38 0.00 92 1012.4
20260505221454 10 221 1.6 4.8 0.00 0.38 0.00 92 1012.4
20260505221411 10 212 1.6 3.2 0.00 0.38 0.00 92 1012.5
20260505221326 10 221 1.6 3.2 0.00 0.38 0.00 92 1012.4
20260505221245 10 221 1.6 3.2 0.00 0.38 0.00 92 1012.4
20260505221205 10 265 1.6 3.2 0.00 0.38 0.00 92 1012.5
20260505220937 10 232 1.6 4.8 0.00 0.38 0.00 92 1012.5
20260505220852 10 243 1.6 4.8 0.00 0.38 0.00 92 1012.5
20260505220812 10 215 1.6 4.8 0.00 0.38 0.00 92 1012.5
20260505220730 10 247 1.6 4.8 0.00 0.38 0.00 92 1012.5
20260505220654 10 193 1.6 4.8 0.00 0.38 0.00 92 1012.5
20260505220610 10 193 1.6 4.8 0.00 0.38 0.00 92 1012.5
20260505220524 10 200 1.6 4.8 0.00 0.38 0.00 92 1012.6
20260505220443 10 279 1.6 4.8 0.00 0.38 0.00 92 1012.6
20260505220220 10 234 1.6 4.8 0.00 0.38 0.38 92 1012.6
20260505220138 10 221 1.6 3.2 0.00 0.38 0.38 92 1012.7
20260505220053 10 298 1.6 3.2 0.00 0.38 0.38 92 1012.7
20260505215835 10 221 1.6 3.2 0.00 0.41 0.38 92 1012.6
20260505215759 10 221 1.6 3.2 0.00 0.41 0.38 92 1012.7
20260505215534 10 205 1.6 3.2 0.00 0.41 0.38 92 1012.6
20260505214953 10 247 1.6 3.2 0.00 0.41 0.38 92 1012.7
20260505214911 10 309 1.6 3.2 0.00 0.41 0.38 92 1012.7
20260505214503 10 51 1.6 4.8 0.00 0.41 0.38 92 1012.7
20260505214037 10 282 1.6 4.8 0.00 0.41 0.38 92 1012.7
20260505213940 10 221 1.6 4.8 0.00 0.41 0.38 92 1012.7
20260505213858 10 51 1.6 4.8 0.00 0.41 0.38 92 1012.7
20260505213811 10 221 1.6 4.8 0.00 0.41 0.38 92 1012.7
20260505213529 10 221 3.2 4.8 0.00 0.41 0.38 92 1012.8
20260505213424 10 232 1.6 4.8 0.00 0.41 0.38 92 1012.8
20260505213346 10 254 1.6 4.8 0.00 0.41 0.38 92 1012.7
20260505213301 10 236 1.6 4.8 0.00 0.41 0.38 92 1012.8
20260505213206 10 221 1.6 4.8 0.00 0.41 0.38 92 1012.7
20260505213003 11 178 0.0 6.4 0.00 0.76 0.38 90 1011.9
20260505212923 10 265 3.2 4.8 0.00 0.41 0.38 92 1012.8
20260505212831 10 238 3.2 4.8 0.00 0.41 0.38 92 1012.7
20260505212745 10 280 3.2 4.8 0.00 0.41 0.38 92 1012.7
20260505212704 10 279 1.6 4.8 0.00 0.41 0.38 92 1012.8
20260505212422 10 265 1.6 3.2 0.00 0.41 0.38 92 1012.8
20260505212338 10 309 1.6 3.2 0.00 0.41 0.38 92 1012.8
20260505212251 10 9 1.6 3.2 0.00 0.41 0.38 92 1012.9
20260505212211 10 232 1.6 3.2 0.00 0.41 0.38 92 1012.8
20260505211948 10 250 1.6 3.2 0.00 0.41 0.38 92 1012.9
20260505211903 10 247 1.6 3.2 0.00 0.41 0.38 92 1012.8
20260505211655 11 205 1.6 4.8 0.00 0.84 0.38 90 1011.9
20260505211605 10 298 1.6 3.2 0.00 0.41 0.38 91 1012.9
20260505211514 10 238 1.6 3.2 0.00 0.41 0.38 91 1012.9
20260505211436 10 205 1.6 3.2 0.00 0.43 0.38 91 1012.9
20260505211353 10 265 1.6 3.2 0.00 0.43 0.38 91 1012.9
20260505211306 10 229 1.6 3.2 0.00 0.43 0.38 91 1012.9
20260505211223 10 221 1.6 3.2 0.00 0.43 0.38 91 1012.9
20260505211129 10 215 1.6 3.2 0.00 0.43 0.38 91 1012.9
20260505210715 11 238 1.6 3.2 0.00 0.89 0.38 90 1011.9
20260505210649 10 250 1.6 3.2 0.00 0.43 0.38 91 1013.0
20260505210610 10 238 1.6 3.2 0.00 0.43 0.38 91 1012.9
20260505210529 10 221 1.6 3.2 0.00 0.43 0.38 91 1013.0
20260505210241 10 265 1.6 3.2 0.00 0.43 0.38 91 1012.9
20260505210204 10 221 1.6 3.2 0.00 0.43 0.38 91 1012.9
20260505210122 10 265 1.6 3.2 0.00 0.43 0.38 91 1012.9
20260505210035 10 236 1.6 3.2 0.00 0.43 0.38 91 1012.9
20260505205805 10 205 3.2 3.2 0.00 0.43 0.38 91 1013.0
20260505205721 10 208 1.6 3.2 0.00 0.43 0.38 91 1013.0
20260505205643 10 217 1.6 3.2 0.00 0.43 0.38 91 1012.9
20260505205600 10 238 1.6 3.2 0.00 0.43 0.38 91 1013.0
20260505205521 10 250 1.6 3.2 0.00 0.43 0.38 91 1013.0
20260505205436 10 234 1.6 3.2 0.00 0.43 0.38 91 1013.0
20260505205039 10 265 1.6 4.8 0.00 0.43 0.38 91 1013.0
20260505204955 10 265 1.6 4.8 0.00 0.43 0.38 91 1013.0
20260505204910 10 215 1.6 4.8 0.00 0.43 0.38 91 1013.0
20260505204828 10 247 0.0 4.8 0.00 0.43 0.38 91 1012.9
20260505204441 10 232 3.2 4.8 0.00 0.43 0.38 91 1012.9
20260505204359 10 247 3.2 4.8 0.00 0.43 0.38 91 1012.9
20260505204315 10 325 1.6 4.8 0.00 0.43 0.38 91 1012.9
20260505204239 10 309 1.6 3.2 0.00 0.43 0.38 91 1012.9
20260505203839 10 146 1.6 3.2 0.00 0.43 0.38 91 1012.7
20260505203434 10 205 1.6 3.2 0.00 0.43 0.38 91 1012.7
20260505203350 10 265 1.6 3.2 0.00 0.43 0.38 91 1012.7
20260505203205 11 161 0.0 3.2 0.00 0.89 0.38 90 1011.9
20260505203150 10 254 1.6 4.8 0.00 0.43 0.38 91 1012.7
20260505203051 10 265 1.6 6.4 0.00 0.43 0.38 91 1012.7
20260505203039 11 221 1.6 3.2 0.00 0.89 0.38 90 1011.9
20260505202948 10 279 0.0 6.4 0.00 0.43 0.38 91 1012.7
20260505202848 10 232 1.6 6.4 0.00 0.46 0.38 91 1012.7
20260505202749 10 212 1.6 6.4 0.00 0.46 0.38 91 1012.6
20260505202722 11 196 1.6 4.8 0.00 0.99 0.38 91 1012.0
20260505202645 10 221 0.0 6.4 0.00 0.46 0.38 91 1012.6
20260505202544 10 279 1.6 6.4 0.00 0.48 0.38 91 1012.5
20260505202445 10 275 1.6 6.4 0.00 0.48 0.38 91 1012.5
20260505202353 10 273 3.2 6.4 0.00 0.48 0.38 91 1012.6
20260505202308 10 309 4.8 6.4 0.00 0.51 0.38 91 1012.4
20260505202229 10 315 3.2 6.4 0.00 0.51 0.38 91 1012.5
20260505202147 10 312 1.6 4.8 0.00 0.51 0.38 91 1012.5
20260505202106 10 325 0.0 3.2 0.00 0.51 0.38 91 1012.5
20260505201650 10 93 1.6 3.2 0.00 0.56 0.38 91 1012.5
20260505201606 10 137 1.6 3.2 0.00 0.56 0.38 91 1012.4
20260505201420 10 196 1.6 3.2 0.00 0.58 0.38 91 1012.5
20260505201358 11 221 1.6 4.8 0.00 1.14 0.38 90 1012.0
20260505201319 10 153 1.6 3.2 0.00 0.58 0.38 91 1012.5
20260505201220 10 153 0.0 3.2 0.00 0.61 0.38 91 1012.5
20260505201119 10 238 1.6 4.8 0.00 0.61 0.38 91 1012.5
20260505201019 10 265 1.6 4.8 0.00 0.61 0.38 91 1012.5
20260505200949 11 232 1.6 4.8 0.00 1.19 0.38 90 1012.1
20260505200915 11 205 1.6 4.8 0.00 0.61 0.38 91 1012.4
20260505200813 11 131 1.6 4.8 0.00 0.61 0.38 91 1012.4
20260505200714 11 126 0.0 4.8 0.00 0.61 0.38 91 1012.4
20260505200654 11 232 1.6 6.4 0.00 1.27 0.38 91 1012.1
20260505200617 11 137 0.0 4.8 0.00 0.61 0.38 91 1012.4
20260505200513 11 153 1.6 4.8 0.00 0.61 0.38 91 1012.4
20260505200410 11 178 1.6 4.8 0.00 0.61 0.38 91 1012.4
20260505200300 11 137 3.2 4.8 0.00 0.61 0.38 91 1012.3
20260505200209 11 131 1.6 4.8 0.00 0.61 0.38 91 1012.3
20260505200127 11 124 1.6 4.8 0.00 0.61 0.38 91 1012.2
20260505200034 11 137 3.2 4.8 0.00 0.64 0.38 91 1012.3
20260505195758 11 110 1.6 4.8 0.00 0.64 0.38 91 1012.2
20260505195742 11 178 1.6 6.4 0.00 1.35 0.38 91 1011.9
20260505195650 11 119 3.2 4.8 0.00 0.64 0.38 91 1012.2
20260505195611 11 108 3.2 4.8 0.00 0.64 0.38 91 1012.2
20260505195529 11 110 1.6 4.8 0.00 0.64 0.38 91 1012.2
20260505195445 11 109 1.6 4.8 0.00 0.64 0.38 91 1012.2
20260505195403 11 119 3.2 4.8 0.00 0.64 0.38 91 1012.2
20260505195139 11 123 1.6 3.2 0.00 0.64 0.38 90 1012.2
20260505194938 11 137 1.6 3.2 0.00 0.64 0.38 90 1012.2
20260505194918 11 236 1.6 6.4 0.00 1.35 0.38 91 1012.0
20260505194842 11 119 1.6 3.2 0.00 0.64 0.38 90 1012.2
20260505194758 11 111 1.6 3.2 0.00 0.64 0.38 90 1012.1
20260505194712 11 123 1.6 3.2 0.00 0.64 0.38 90 1012.1
20260505194430 11 108 1.6 3.2 0.00 0.66 0.38 90 1012.1
20260505194328 11 93 1.6 3.2 0.00 0.66 0.38 90 1012.1
20260505194226 11 80 1.6 3.2 0.00 0.66 0.38 90 1012.1
20260505194126 11 105 3.2 3.2 0.00 0.66 0.38 90 1012.1
20260505194030 11 119 1.6 3.2 0.00 0.66 0.38 90 1012.0
20260505193949 11 126 1.6 3.2 0.00 0.66 0.38 90 1012.1
20260505193906 11 129 1.6 3.2 0.00 0.66 0.38 90 1012.0
20260505193709 11 243 3.2 11.3 0.03 1.55 0.38 90 1012.0
20260505193616 11 119 1.6 3.2 0.00 0.69 0.38 90 1012.0
20260505193533 11 119 1.6 3.2 0.00 0.69 0.38 90 1012.0
20260505193453 11 153 1.6 3.2 0.00 0.69 0.38 90 1012.0
20260505193223 11 129 0.0 3.2 0.00 0.69 0.38 90 1011.9
20260505193140 11 146 0.0 1.6 0.00 0.69 0.38 90 1012.0
20260505193104 11 93 0.0 1.6 0.00 0.69 0.38 90 1012.0
20260505192909 11 93 0.0 1.6 0.00 0.69 0.38 90 1012.0
20260505192809 11 325 0.0 1.6 0.00 0.69 0.38 90 1012.0
20260505192801 11 236 3.2 16.1 0.05 1.55 0.38 90 1012.0
20260505192707 11 309 0.0 1.6 0.00 0.69 0.38 90 1012.0
20260505192610 11 291 0.0 1.6 0.00 0.69 0.38 90 1012.0
20260505192548 11 219 3.2 11.3 0.05 1.55 0.38 91 1012.0
20260505192507 11 212 0.0 1.6 0.00 0.69 0.38 90 1012.0
20260505192404 11 137 1.6 1.6 0.00 0.69 0.38 90 1011.9
20260505192350 11 275 4.8 12.9 0.05 1.55 0.38 90 1012.0
20260505192258 11 111 0.0 1.6 0.00 0.69 0.38 90 1011.9
20260505192243 11 261 3.2 12.9 0.08 1.55 0.38 91 1012.0
20260505192153 11 111 0.0 1.6 0.00 0.69 0.38 90 1011.9
20260505192108 11 221 0.0 1.6 0.00 0.69 0.38 90 1011.9
20260505192033 11 51 0.0 1.6 0.00 0.69 0.38 90 1011.9
20260505191957 11 51 0.0 1.6 0.00 0.71 0.38 90 1011.8
20260505191605 10 248 6.4 14.5 0.13 1.55 0.38 90 1011.9
20260505191536 11 41 0.0 1.6 0.00 0.71 0.38 90 1011.9
20260505191512 10 198 4.8 16.1 0.15 1.55 0.38 90 1011.9
20260505191454 10 287 3.2 16.1 0.15 1.55 0.38 90 1011.8
20260505191429 11 41 0.0 1.6 0.00 0.71 0.38 90 1011.9
20260505191358 11 41 0.0 1.6 0.00 0.71 0.38 90 1011.9
20260505191315 11 93 0.0 1.6 0.00 0.71 0.38 90 1011.9
20260505191115 11 93 0.0 3.2 0.00 0.71 0.38 90 1011.9
20260505191016 11 93 0.0 3.2 0.00 0.71 0.38 90 1011.9
20260505190952 10 221 6.4 16.1 0.23 1.55 0.38 90 1012.1
20260505190914 11 221 0.0 3.2 0.00 0.71 0.38 90 1011.9
20260505190851 10 273 6.4 19.3 0.23 1.55 0.38 90 1012.1
20260505190813 11 221 0.0 3.2 0.00 0.71 0.38 90 1011.9
20260505190710 11 221 0.0 3.2 0.00 0.71 0.38 90 1011.9
20260505190631 10 243 6.4 19.3 0.28 1.55 0.38 90 1012.1
20260505190610 11 119 0.0 3.2 0.00 0.71 0.38 90 1011.9
20260505190535 11 119 0.0 3.2 0.00 0.71 0.38 90 1011.9
20260505190457 11 137 1.6 3.2 0.00 0.71 0.38 90 1011.9
20260505190231 11 193 1.6 3.2 0.00 0.71 0.38 90 1012.0
20260505190153 11 158 1.6 3.2 0.00 0.71 0.38 90 1011.9
20260505190109 11 212 1.6 3.2 0.00 0.71 0.38 90 1011.9
20260505190017 11 137 1.6 3.2 0.00 0.71 0.38 90 1011.9
20260505185607 11 193 0.0 3.2 0.00 0.71 0.38 90 1011.9
20260505185527 11 221 0.0 1.6 0.00 0.71 0.38 90 1011.9
20260505185348 11 196 0.0 1.6 0.00 0.71 0.38 90 1011.9
20260505185245 11 205 0.0 1.6 0.00 0.71 0.38 90 1011.9
20260505185135 11 205 0.0 1.6 0.00 0.71 0.38 90 1011.9
20260505185044 11 205 0.0 1.6 0.00 0.71 0.38 90 1011.9
20260505185008 11 221 0.0 3.2 0.00 0.71 0.38 90 1011.9
20260505184934 11 238 0.0 3.2 0.00 0.71 0.38 90 1011.9
20260505184736 11 205 0.0 3.2 0.00 0.71 0.38 90 1011.9
20260505184630 11 309 0.0 3.2 0.00 0.71 0.38 90 1011.9
20260505184530 11 205 0.0 3.2 0.00 0.71 0.38 90 1011.9
20260505184447 10 288 6.4 17.7 0.33 1.68 0.36 88 1012.3
20260505184427 11 178 0.0 3.2 0.00 0.74 0.38 90 1011.9
20260505184328 11 325 0.0 3.2 0.00 0.74 0.38 90 1011.8
20260505184227 11 309 0.0 3.2 0.00 0.74 0.38 90 1011.9
20260505184126 11 325 1.6 6.4 0.00 0.74 0.38 90 1011.8
20260505184042 11 238 0.0 6.4 0.00 0.74 0.38 90 1011.9
20260505184002 11 334 0.0 6.4 0.00 0.74 0.38 90 1011.9
20260505183732 11 316 0.0 6.4 0.00 0.76 0.38 90 1011.8
20260505183648 11 265 1.6 6.4 0.00 0.76 0.38 90 1011.9
20260505183611 11 221 1.6 6.4 0.00 0.76 0.38 90 1011.9
20260505183528 11 279 1.6 6.4 0.00 0.79 0.38 90 1011.9
20260505183301 11 309 1.6 6.4 0.00 0.79 0.38 90 1011.9
20260505183214 11 238 1.6 4.8 0.00 0.79 0.38 90 1011.9
20260505183135 11 279 1.6 4.8 0.00 0.79 0.38 90 1011.8
20260505182728 11 9 1.6 3.2 0.00 0.84 0.38 90 1011.9
20260505182643 11 238 1.6 3.2 0.00 0.84 0.38 90 1011.9
20260505182600 11 93 0.0 3.2 0.00 0.86 0.38 90 1011.9
20260505182519 11 153 1.6 3.2 0.00 0.86 0.38 90 1011.9
20260505182259 11 247 1.6 3.2 0.00 0.89 0.38 90 1012.0
20260505182214 11 165 1.6 3.2 0.00 0.89 0.38 90 1012.0
20260505181814 11 265 0.0 3.2 0.00 0.89 0.38 90 1012.0
20260505181737 11 291 1.6 3.2 0.00 0.89 0.38 90 1011.9
20260505181455 11 205 0.0 3.2 0.00 0.91 0.38 90 1011.9
20260505181351 11 165 0.0 3.2 0.00 0.91 0.38 90 1011.9
20260505181249 11 265 1.6 3.2 0.00 0.91 0.38 90 1011.9
20260505181224 13 243 27.4 45.1 0.15 1.50 0.15 79 1011.2
20260505181151 11 232 1.6 4.8 0.00 0.94 0.38 90 1012.0
20260505181051 11 254 1.6 4.8 0.00 0.94 0.38 90 1011.9
20260505181010 11 200 1.6 4.8 0.00 0.97 0.38 90 1011.9
20260505180928 11 209 1.6 4.8 0.00 0.99 0.38 90 1012.0
20260505180643 11 168 1.6 4.8 0.00 0.99 0.38 90 1011.9
20260505180553 11 205 1.6 4.8 0.00 1.04 0.38 91 1012.0
20260505180458 11 247 1.6 4.8 0.00 1.07 0.38 91 1012.0
20260505180420 11 265 3.2 4.8 0.00 1.09 0.38 91 1011.9
20260505180327 11 238 1.6 4.8 0.00 1.09 0.38 91 1012.1
20260505180240 11 254 1.6 4.8 0.00 1.09 0.38 91 1011.9
20260505180158 11 238 1.6 4.8 0.00 1.12 0.38 91 1011.9
20260505175734 11 165 1.6 4.8 0.00 1.14 0.38 90 1011.9
20260505175701 14 300 9.7 20.9 0.08 1.45 0.08 81 1010.8
20260505175627 11 232 1.6 4.8 0.00 1.17 0.38 90 1011.9
20260505175526 11 238 1.6 4.8 0.00 1.17 0.38 90 1011.9
20260505175444 11 265 1.6 4.8 0.00 1.17 0.38 90 1012.0
20260505175359 11 265 1.6 4.8 0.00 1.17 0.38 90 1012.0
20260505175316 11 178 3.2 4.8 0.00 1.17 0.38 90 1012.0
20260505175229 11 188 1.6 4.8 0.00 1.19 0.38 90 1012.1
20260505175148 11 178 1.6 4.8 0.00 1.19 0.38 90 1012.0
20260505174814 11 282 3.2 6.4 0.00 1.19 0.38 90 1012.0
20260505174802 15 288 12.9 22.5 0.05 1.42 0.05 81 1010.7
20260505174701 11 229 3.2 6.4 0.00 1.22 0.38 90 1012.1
20260505174621 15 268 12.9 22.5 0.05 1.42 0.05 80 1010.6
20260505174558 11 217 1.6 6.4 0.00 1.24 0.38 90 1012.1
20260505174516 11 153 1.6 6.4 0.00 1.24 0.38 90 1012.1
20260505174434 11 178 1.6 6.4 0.00 1.24 0.38 90 1012.1
20260505174153 11 247 1.6 6.4 0.00 1.27 0.38 91 1012.1
20260505174052 11 265 3.2 6.4 0.00 1.27 0.38 91 1012.1
20260505174038 15 265 4.8 8.0 0.03 1.37 0.03 80 1010.4
20260505173949 11 254 1.6 6.4 0.00 1.27 0.38 91 1012.1
20260505173921 15 297 6.4 8.0 0.00 1.37 0.03 77 1010.4
20260505173850 11 149 1.6 4.8 0.00 1.27 0.38 91 1012.1
20260505173748 11 221 3.2 4.8 0.00 1.27 0.38 91 1012.0
20260505173650 11 291 1.6 4.8 0.00 1.30 0.38 91 1012.0
20260505173545 11 265 1.6 6.4 0.00 1.32 0.38 91 1012.0
20260505173445 11 193 1.6 6.4 0.00 1.32 0.38 91 1012.0
20260505173403 11 186 0.0 6.4 0.00 1.32 0.38 91 1011.9
20260505173320 11 232 1.6 6.4 0.00 1.32 0.38 91 1011.9
20260505173238 11 212 1.6 6.4 0.00 1.32 0.38 91 1011.9
20260505173158 11 178 1.6 6.4 0.00 1.35 0.38 90 1011.9
20260505172942 11 221 1.6 6.4 0.00 1.35 0.38 91 1012.0
20260505172716 11 273 1.6 6.4 0.00 1.35 0.38 91 1012.0
20260505172440 11 291 1.6 6.4 0.00 1.37 0.38 91 1012.0
20260505172401 11 243 1.6 6.4 0.00 1.37 0.38 91 1012.1
20260505172318 11 212 1.6 6.4 0.00 1.37 0.38 91 1012.1
20260505172125 11 196 3.2 6.4 0.00 1.40 0.38 91 1012.0
20260505172022 11 208 3.2 6.4 0.00 1.42 0.38 91 1012.0
20260505171922 11 195 1.6 6.4 0.00 1.45 0.38 91 1012.1
20260505171820 11 265 1.6 9.7 0.00 1.45 0.38 91 1012.0
20260505171718 11 238 1.6 9.7 0.00 1.47 0.38 91 1012.1
20260505171619 11 232 3.2 9.7 0.00 1.47 0.38 91 1012.1
20260505171550 16 288 6.4 11.3 0.00 1.37 0.00 71 1010.2
20260505171518 11 51 3.2 11.3 0.03 1.50 0.38 91 1012.0
20260505171432 11 238 3.2 11.3 0.03 1.52 0.38 91 1012.0
20260505171349 11 215 3.2 11.3 0.03 1.55 0.38 90 1012.0
20260505171306 10 205 3.2 11.3 0.03 1.55 0.38 90 1012.0
20260505171040 10 293 3.2 11.3 0.03 1.55 0.38 90 1012.0
20260505171000 10 298 3.2 11.3 0.03 1.55 0.38 90 1012.0
20260505170918 11 205 4.8 16.1 0.03 1.55 0.38 90 1012.0
20260505170634 11 238 3.2 16.1 0.03 1.55 0.38 90 1012.1
20260505170552 11 196 3.2 16.1 0.05 1.55 0.38 90 1012.0
20260505170511 11 321 3.2 16.1 0.05 1.55 0.38 90 1012.1
20260505170244 11 279 3.2 16.1 0.05 1.55 0.38 91 1012.0
20260505170200 11 249 6.4 16.1 0.05 1.55 0.38 90 1012.0
20260505170122 11 215 6.4 16.1 0.05 1.55 0.38 90 1012.1
20260505170025 11 298 3.2 16.1 0.05 1.55 0.38 90 1012.0
20260505165759 11 279 3.2 12.9 0.05 1.55 0.38 91 1012.0
20260505165714 11 265 3.2 12.9 0.05 1.55 0.38 91 1012.0
20260505165632 11 242 3.2 12.9 0.05 1.55 0.38 90 1011.9
20260505165553 11 254 3.2 12.9 0.05 1.55 0.38 90 1012.0
20260505165326 11 297 3.2 12.9 0.05 1.55 0.38 91 1012.0
20260505165243 11 309 4.8 12.9 0.08 1.55 0.38 91 1012.1
20260505165019 10 257 4.8 12.9 0.08 1.55 0.38 91 1012.0
20260505164938 10 265 4.8 12.9 0.10 1.55 0.38 91 1011.9
20260505164853 10 178 6.4 14.5 0.10 1.55 0.38 91 1012.0
20260505164629 10 309 4.8 14.5 0.13 1.55 0.38 90 1011.9
20260505164547 10 312 4.8 14.5 0.13 1.55 0.38 90 1011.9
20260505163934 10 319 3.2 16.1 0.18 1.55 0.38 90 1012.0
20260505163837 10 305 6.4 16.1 0.18 1.55 0.38 90 1011.9
20260505163825 16 341 4.8 11.3 0.00 1.37 0.00 72 1010.2
20260505163744 10 252 8.0 16.1 0.18 1.55 0.38 90 1012.0
20260505163700 10 286 6.4 16.1 0.20 1.55 0.38 90 1012.0
20260505163612 10 250 4.8 16.1 0.23 1.55 0.38 90 1012.0
20260505163350 10 252 6.4 16.1 0.23 1.55 0.38 90 1012.0
20260505163305 10 205 4.8 16.1 0.23 1.55 0.38 90 1012.1
20260505163018 10 282 8.0 19.3 0.23 1.55 0.38 90 1012.1
20260505162922 10 236 6.4 19.3 0.23 1.55 0.38 90 1012.1
20260505162841 10 250 6.4 19.3 0.23 1.55 0.38 90 1012.1
20260505162758 10 269 8.0 19.3 0.23 1.55 0.38 90 1012.1
20260505162717 10 294 6.4 19.3 0.25 1.55 0.38 90 1012.1
20260505162629 10 307 4.8 19.3 0.25 1.55 0.38 90 1012.1
20260505162233 16 344 6.4 11.3 0.00 1.37 0.00 72 1010.3
20260505162209 10 272 9.7 19.3 0.30 1.55 0.38 90 1012.2
20260505162130 16 342 6.4 11.3 0.00 1.37 0.00 72 1010.3
20260505162112 10 321 6.4 16.1 0.30 1.55 0.38 89 1012.2
20260505162012 10 261 8.0 19.3 0.30 1.55 0.38 89 1012.2
20260505162001 16 344 6.4 12.9 0.00 1.37 0.00 69 1010.2
20260505161908 10 296 8.0 19.3 0.30 1.55 0.38 89 1012.2
20260505161826 10 307 6.4 19.3 0.33 1.55 0.38 89 1012.3
20260505161727 10 246 4.8 19.3 0.33 1.55 0.38 89 1012.3
20260505161643 10 221 4.8 19.3 0.33 1.55 0.38 89 1012.3
20260505161401 10 282 6.4 19.3 0.30 1.55 0.36 89 1012.4
20260505161331 16 334 3.2 12.9 0.00 1.37 0.00 70 1010.3
20260505161259 10 232 9.7 19.3 0.30 1.55 0.36 89 1012.4
20260505161200 10 243 9.7 19.3 0.30 1.55 0.36 89 1012.4
20260505161059 10 323 4.8 19.3 0.30 1.55 0.36 89 1012.3
20260505161044 16 15 8.0 12.9 0.00 1.37 0.00 68 1010.3
20260505161021 16 344 4.8 12.9 0.00 1.37 0.00 67 1010.3
20260505160955 10 294 6.4 19.3 0.33 1.55 0.36 89 1012.4
20260505160855 10 238 9.7 19.3 0.33 1.57 0.36 88 1012.3
20260505160801 10 236 6.4 19.3 0.33 1.63 0.36 89 1012.3
20260505160717 10 273 6.4 14.5 0.33 1.63 0.36 88 1012.3
20260505160632 10 309 6.4 17.7 0.33 1.65 0.36 88 1012.3
20260505160349 10 309 4.8 17.7 0.33 1.68 0.33 88 1012.3
20260505160314 16 236 6.4 12.9 0.00 1.37 0.00 70 1010.3
20260505160246 10 307 3.2 17.7 0.33 1.68 0.33 88 1012.3
20260505160147 10 259 3.2 17.7 0.33 1.70 0.33 88 1012.4
20260505153351 16 321 6.4 14.5 0.00 1.37 0.00 69 1010.7
20260505153310 12 231 14.5 45.1 0.15 1.52 0.15 81 1011.6
20260505153223 12 238 20.9 45.1 0.15 1.50 0.15 81 1011.5
20260505153129 12 307 19.3 45.1 0.15 1.50 0.15 80 1011.5
20260505153045 13 291 24.1 45.1 0.15 1.50 0.15 80 1011.3
20260505152839 16 330 8.0 14.5 0.00 1.37 0.00 72 1010.7
20260505152802 13 325 30.6 45.1 0.15 1.50 0.15 80 1011.2
20260505152724 16 350 9.7 19.3 0.00 1.37 0.00 70 1010.7
20260505152701 13 301 29.0 43.5 0.13 1.47 0.15 80 1011.1
20260505152600 13 291 20.9 43.5 0.13 1.47 0.13 80 1011.0
20260505152458 14 245 14.5 32.2 0.13 1.47 0.13 82 1011.1
20260505152417 14 257 12.9 20.9 0.10 1.45 0.10 82 1011.1
20260505152338 14 305 9.7 20.9 0.10 1.45 0.10 82 1010.9
20260505152253 14 297 8.0 20.9 0.08 1.45 0.08 81 1010.9
20260505152159 14 250 11.3 20.9 0.08 1.45 0.08 81 1010.8
20260505152113 14 292 11.3 20.9 0.08 1.45 0.08 81 1010.8
20260505151852 14 282 9.7 22.5 0.05 1.42 0.08 81 1010.7
20260505151807 14 281 11.3 22.5 0.05 1.42 0.05 81 1010.7
20260505151349 15 298 11.3 22.5 0.05 1.42 0.05 80 1010.7
20260505151309 15 297 9.7 22.5 0.05 1.42 0.05 80 1010.7
20260505151224 15 269 11.3 22.5 0.05 1.42 0.05 80 1010.6
20260505150949 15 307 14.5 22.5 0.05 1.40 0.05 80 1010.6
20260505150907 15 298 12.9 22.5 0.05 1.40 0.05 80 1010.6
20260505150827 15 289 8.0 16.1 0.03 1.37 0.05 80 1010.5
20260505150743 15 277 4.8 16.1 0.03 1.37 0.03 81 1010.4
20260505150516 15 288 4.8 8.0 0.03 1.37 0.03 79 1010.5
20260505150434 15 323 6.4 8.0 0.00 1.37 0.03 78 1010.5
20260505150206 15 281 6.4 8.0 0.00 1.37 0.00 78 1010.4
20260505150123 15 277 6.4 8.0 0.00 1.37 0.00 78 1010.4
20260505140617 16 317 6.4 9.7 0.00 1.37 0.00 71 1010.2
20260505140519 16 332 6.4 9.7 0.00 1.37 0.00 71 1010.1
20260505140423 16 332 6.4 9.7 0.00 1.37 0.00 72 1010.1
20260505140353 15 22 9.7 16.1 0.00 1.37 0.00 70 1011.3
20260505140315 16 334 6.4 9.7 0.00 1.37 0.00 73 1010.1
20260505140235 16 336 6.4 9.7 0.00 1.37 0.00 71 1010.1
20260505140151 16 329 4.8 9.7 0.00 1.37 0.00 72 1010.1